DO7DH-5 Weather Reports


time (UTC)temp
F
wind
direction
speed
knots
gust
knots
rain 1hr
in
rain 24hr
in
rain mn
in
humidity
%
barometer
mb
20260505140644 77 0.0 0.0 0.00 0.00 0.00 27 1005.7
20260505140612 77 0.0 0.0 0.00 0.00 0.00 27 1005.8
20260505140541 77 0.0 0.0 0.00 0.00 0.00 27 1005.7
20260505140509 77 0.0 0.0 0.00 0.00 0.00 26 1005.7
20260505140438 77 0.0 0.0 0.00 0.00 0.00 26 1005.7
20260505140406 77 0.0 0.0 0.00 0.00 0.00 26 1005.8
20260505140335 77 0.0 0.0 0.00 0.00 0.00 26 1005.8
20260505140303 77 0.0 0.0 0.00 0.00 0.00 26 1005.8
20260505140231 77 0.0 0.0 0.00 0.00 0.00 26 1005.8
20260505140159 77 0.0 0.0 0.00 0.00 0.00 26 1005.8
20260505140128 77 0.0 0.0 0.00 0.00 0.00 26 1005.8
20260505130302 81 0.0 0.0 0.00 0.00 0.00 24 1006.0
20260505130231 81 0.0 0.0 0.00 0.00 0.00 24 1006.0
20260505130159 82 0.0 0.0 0.00 0.00 0.00 24 1006.0
20260505130128 82 0.0 0.0 0.00 0.00 0.00 24 1006.0
20260505125025 81 0.0 0.0 0.00 0.00 0.00 23 1006.2
20260505124954 81 0.0 0.0 0.00 0.00 0.00 23 1006.2
20260505124922 82 0.0 0.0 0.00 0.00 0.00 23 1006.1
20260505124850 82 0.0 0.0 0.00 0.00 0.00 23 1006.1
20260505124819 82 0.0 0.0 0.00 0.00 0.00 24 1006.2
20260505124748 82 0.0 0.0 0.00 0.00 0.00 24 1006.2
20260505124716 83 0.0 0.0 0.00 0.00 0.00 24 1006.2
20260505124644 82 0.0 0.0 0.00 0.00 0.00 24 1006.1
20260505124613 82 0.0 0.0 0.00 0.00 0.00 24 1006.1
20260505124541 82 0.0 0.0 0.00 0.00 0.00 24 1006.1
20260505124510 82 0.0 0.0 0.00 0.00 0.00 24 1006.2
20260505124438 82 0.0 0.0 0.00 0.00 0.00 24 1006.2
20260505124407 83 0.0 0.0 0.00 0.00 0.00 25 1006.2
20260505124335 82 0.0 0.0 0.00 0.00 0.00 25 1006.2
20260505124304 82 0.0 0.0 0.00 0.00 0.00 25 1006.2
20260505124232 82 0.0 0.0 0.00 0.00 0.00 25 1006.2
20260505124201 82 0.0 0.0 0.00 0.00 0.00 24 1006.2
20260505124129 82 0.0 0.0 0.00 0.00 0.00 25 1006.2
20260505124058 82 0.0 0.0 0.00 0.00 0.00 25 1006.3
20260505124027 82 0.0 0.0 0.00 0.00 0.00 25 1006.3
20260505123955 83 0.0 0.0 0.00 0.00 0.00 25 1006.2
20260505123923 83 0.0 0.0 0.00 0.00 0.00 25 1006.2
20260505123851 83 0.0 0.0 0.00 0.00 0.00 25 1006.3
20260505123820 82 0.0 0.0 0.00 0.00 0.00 25 1006.3
20260505123748 82 0.0 0.0 0.00 0.00 0.00 24 1006.3
20260505123717 82 0.0 0.0 0.00 0.00 0.00 25 1006.3
20260505123645 82 0.0 0.0 0.00 0.00 0.00 25 1006.3
20260505123614 82 0.0 0.0 0.00 0.00 0.00 25 1006.3
20260505123542 82 0.0 0.0 0.00 0.00 0.00 25 1006.3
20260505123511 82 0.0 0.0 0.00 0.00 0.00 25 1006.3
20260505123439 83 0.0 0.0 0.00 0.00 0.00 25 1006.3
20260505123408 83 0.0 0.0 0.00 0.00 0.00 25 1006.3
20260505123336 82 0.0 0.0 0.00 0.00 0.00 25 1006.3
20260505123305 82 0.0 0.0 0.00 0.00 0.00 25 1006.3
20260505123233 82 0.0 0.0 0.00 0.00 0.00 25 1006.3
20260505123202 82 0.0 0.0 0.00 0.00 0.00 25 1006.4
20260505123130 81 0.0 0.0 0.00 0.00 0.00 25 1006.4
20260505123057 81 0.0 0.0 0.00 0.00 0.00 25 1006.4
20260505123026 81 0.0 0.0 0.00 0.00 0.00 25 1006.4
20260505122954 80 0.0 0.0 0.00 0.00 0.00 25 1006.4
20260505122923 80 0.0 0.0 0.00 0.00 0.00 24 1006.4
20260505122852 80 0.0 0.0 0.00 0.00 0.00 99 1006.4
20260505122820 79 0.0 0.0 0.00 0.00 0.00 24 1006.4
20260505122748 79 0.0 0.0 0.00 0.00 0.00 24 1006.4
20260505122717 79 0.0 0.0 0.00 0.00 0.00 24 1006.4
20260505122645 79 0.0 0.0 0.00 0.00 0.00 24 1006.4
20260505122613 80 0.0 0.0 0.00 0.00 0.00 24 1006.4
20260505122542 80 0.0 0.0 0.00 0.00 0.00 24 1006.4
20260505122510 80 0.0 0.0 0.00 0.00 0.00 24 1006.4
20260505122439 80 0.0 0.0 0.00 0.00 0.00 24 1006.4
20260505122407 81 0.0 0.0 0.00 0.00 0.00 24 1006.4
20260505122336 81 0.0 0.0 0.00 0.00 0.00 24 1006.4
20260505122305 81 0.0 0.0 0.00 0.00 0.00 24 1006.4
20260505122233 81 0.0 0.0 0.00 0.00 0.00 24 1006.4
20260505122201 82 0.0 0.0 0.00 0.00 0.00 25 1006.4
20260505122130 82 0.0 0.0 0.00 0.00 0.00 25 1006.4
20260505122058 82 0.0 0.0 0.00 0.00 0.00 25 1006.4
20260505122027 81 0.0 0.0 0.00 0.00 0.00 25 1006.4
20260505121955 82 0.0 0.0 0.00 0.00 0.00 25 1006.4
20260505121924 82 0.0 0.0 0.00 0.00 0.00 25 1006.4
20260505121852 82 0.0 0.0 0.00 0.00 0.00 25 1006.4
20260505121821 82 0.0 0.0 0.00 0.00 0.00 25 1006.4
20260505121749 82 0.0 0.0 0.00 0.00 0.00 25 1006.4
20260505121717 82 0.0 0.0 0.00 0.00 0.00 25 1006.4
20260505121645 82 0.0 0.0 0.00 0.00 0.00 25 1006.4
20260505121613 82 0.0 0.0 0.00 0.00 0.00 25 1006.4
20260505121542 82 0.0 0.0 0.00 0.00 0.00 25 1006.4
20260505121510 83 0.0 0.0 0.00 0.00 0.00 25 1006.4
20260505121438 83 0.0 0.0 0.00 0.00 0.00 25 1006.4
20260505121407 83 0.0 0.0 0.00 0.00 0.00 25 1006.5
20260505121335 83 0.0 0.0 0.00 0.00 0.00 26 1006.5
20260505121304 83 0.0 0.0 0.00 0.00 0.00 26 1006.5
20260505121232 83 0.0 0.0 0.00 0.00 0.00 26 1006.5
20260505121200 83 0.0 0.0 0.00 0.00 0.00 26 1006.5
20260505121129 83 0.0 0.0 0.00 0.00 0.00 26 1006.5
20260505121058 83 0.0 0.0 0.00 0.00 0.00 26 1006.5
20260505121026 83 0.0 0.0 0.00 0.00 0.00 26 1006.5
20260505120954 83 0.0 0.0 0.00 0.00 0.00 26 1006.6
20260505120923 83 0.0 0.0 0.00 0.00 0.00 26 1006.6
20260505120851 83 0.0 0.0 0.00 0.00 0.00 26 1006.6
20260505120820 83 0.0 0.0 0.00 0.00 0.00 26 1006.5
20260505120748 83 0.0 0.0 0.00 0.00 0.00 26 1006.6
20260505120717 83 0.0 0.0 0.00 0.00 0.00 26 1006.6
20260505120645 82 0.0 0.0 0.00 0.00 0.00 26 1006.6
20260505120614 82 0.0 0.0 0.00 0.00 0.00 26 1006.6
20260505120542 82 0.0 0.0 0.00 0.00 0.00 26 1006.6
20260505120510 82 0.0 0.0 0.00 0.00 0.00 26 1006.6
20260505120439 82 0.0 0.0 0.00 0.00 0.00 26 1006.6
20260505120407 81 0.0 0.0 0.00 0.00 0.00 26 1006.6
20260505120336 81 0.0 0.0 0.00 0.00 0.00 26 1006.6
20260505120303 81 0.0 0.0 0.00 0.00 0.00 26 1006.6
20260505120232 81 0.0 0.0 0.00 0.00 0.00 25 1006.6
20260505120200 81 0.0 0.0 0.00 0.00 0.00 25 1006.6
20260505120128 81 0.0 0.0 0.00 0.00 0.00 25 1006.6
20260505120056 81 0.0 0.0 0.00 0.00 0.00 25 1006.6
20260505120025 81 0.0 0.0 0.00 0.00 0.00 25 1006.7
20260505115953 81 0.0 0.0 0.00 0.00 0.00 25 1006.7
20260505115921 81 0.0 0.0 0.00 0.00 0.00 25 1006.7
20260505115849 81 0.0 0.0 0.00 0.00 0.00 25 1006.7
20260505115746 81 0.0 0.0 0.00 0.00 0.00 25 1006.7
20260505115714 81 0.0 0.0 0.00 0.00 0.00 25 1006.7
20260505115643 81 0.0 0.0 0.00 0.00 0.00 25 1006.8
20260505115611 81 0.0 0.0 0.00 0.00 0.00 25 1006.8
20260505115540 81 0.0 0.0 0.00 0.00 0.00 25 1006.8
20260505115508 81 0.0 0.0 0.00 0.00 0.00 25 1006.8
20260505115436 82 0.0 0.0 0.00 0.00 0.00 26 1006.8
20260505115405 82 0.0 0.0 0.00 0.00 0.00 26 1006.8
20260505115333 82 0.0 0.0 0.00 0.00 0.00 26 1006.8
20260505115304 82 0.0 0.0 0.00 0.00 0.00 26 1006.8
20260505115230 82 0.0 0.0 0.00 0.00 0.00 26 1006.8
20260505115159 82 0.0 0.0 0.00 0.00 0.00 25 1006.9
20260505115127 82 0.0 0.0 0.00 0.00 0.00 26 1006.9
20260505115055 82 0.0 0.0 0.00 0.00 0.00 27 1006.9
20260505115023 82 0.0 0.0 0.00 0.00 0.00 27 1006.9
20260505114952 82 0.0 0.0 0.00 0.00 0.00 27 1006.9
20260505114920 82 0.0 0.0 0.00 0.00 0.00 26 1006.9
20260505114848 82 0.0 0.0 0.00 0.00 0.00 26 1006.9
20260505114817 82 0.0 0.0 0.00 0.00 0.00 26 1006.9
20260505114745 81 0.0 0.0 0.00 0.00 0.00 26 1006.9
20260505114714 81 0.0 0.0 0.00 0.00 0.00 26 1006.9
20260505114642 81 0.0 0.0 0.00 0.00 0.00 26 1006.9
20260505114610 81 0.0 0.0 0.00 0.00 0.00 26 1006.9
20260505114539 81 0.0 0.0 0.00 0.00 0.00 26 1006.9
20260505114507 81 0.0 0.0 0.00 0.00 0.00 26 1007.0
20260505114436 81 0.0 0.0 0.00 0.00 0.00 26 1006.9
20260505114404 81 0.0 0.0 0.00 0.00 0.00 26 1007.0
20260505114332 81 0.0 0.0 0.00 0.00 0.00 26 1007.0
20260505114301 81 0.0 0.0 0.00 0.00 0.00 26 1007.0
20260505114229 81 0.0 0.0 0.00 0.00 0.00 26 1007.0
20260505114158 81 0.0 0.0 0.00 0.00 0.00 26 1007.0
20260505114127 81 0.0 0.0 0.00 0.00 0.00 27 1007.0
20260505114054 81 0.0 0.0 0.00 0.00 0.00 26 1007.0
20260505114022 81 0.0 0.0 0.00 0.00 0.00 27 1007.1
20260505113924 81 0.0 0.0 0.00 0.00 0.00 27 1007.1
20260505113848 81 0.0 0.0 0.00 0.00 0.00 27 1007.1
20260505113816 82 0.0 0.0 0.00 0.00 0.00 27 1007.1
20260505113745 81 0.0 0.0 0.00 0.00 0.00 27 1007.1
20260505113713 82 0.0 0.0 0.00 0.00 0.00 27 1007.1
20260505113641 82 0.0 0.0 0.00 0.00 0.00 27 1007.1
20260505113610 82 0.0 0.0 0.00 0.00 0.00 27 1007.1
20260505113538 82 0.0 0.0 0.00 0.00 0.00 27 1007.1
20260505113507 82 0.0 0.0 0.00 0.00 0.00 27 1007.0
20260505113435 81 0.0 0.0 0.00 0.00 0.00 27 1007.1
20260505113404 81 0.0 0.0 0.00 0.00 0.00 27 1007.1
20260505113332 81 0.0 0.0 0.00 0.00 0.00 27 1007.1
20260505113301 81 0.0 0.0 0.00 0.00 0.00 27 1007.1
20260505113229 80 0.0 0.0 0.00 0.00 0.00 27 1007.1
20260505113158 80 0.0 0.0 0.00 0.00 0.00 26 1007.1
20260505113126 80 0.0 0.0 0.00 0.00 0.00 27 1007.1
20260505113055 80 0.0 0.0 0.00 0.00 0.00 26 1007.1
20260505113023 80 0.0 0.0 0.00 0.00 0.00 27 1007.1
20260505112952 80 0.0 0.0 0.00 0.00 0.00 26 1007.1
20260505112920 80 0.0 0.0 0.00 0.00 0.00 26 1007.1
20260505112849 79 0.0 0.0 0.00 0.00 0.00 26 1007.2
20260505112817 79 0.0 0.0 0.00 0.00 0.00 26 1007.2
20260505112745 79 0.0 0.0 0.00 0.00 0.00 26 1007.2
20260505112714 79 0.0 0.0 0.00 0.00 0.00 26 1007.2
20260505112642 79 0.0 0.0 0.00 0.00 0.00 26 1007.1
20260505112611 78 0.0 0.0 0.00 0.00 0.00 26 1007.2
20260505112539 78 0.0 0.0 0.00 0.00 0.00 25 1007.2
20260505112508 78 0.0 0.0 0.00 0.00 0.00 25 1007.2
20260505112436 78 0.0 0.0 0.00 0.00 0.00 25 1007.2
20260505112405 78 0.0 0.0 0.00 0.00 0.00 25 1007.2
20260505112333 78 0.0 0.0 0.00 0.00 0.00 25 1007.3
20260505112304 78 0.0 0.0 0.00 0.00 0.00 25 1007.3
20260505112230 78 0.0 0.0 0.00 0.00 0.00 25 1007.3
20260505112159 78 0.0 0.0 0.00 0.00 0.00 25 1007.3
20260505112127 78 0.0 0.0 0.00 0.00 0.00 25 1007.3
20260505112055 79 0.0 0.0 0.00 0.00 0.00 25 1007.3
20260505112023 79 0.0 0.0 0.00 0.00 0.00 26 1007.4
20260505111952 80 0.0 0.0 0.00 0.00 0.00 26 1007.4
20260505111920 80 0.0 0.0 0.00 0.00 0.00 26 1007.4
20260505111849 80 0.0 0.0 0.00 0.00 0.00 26 1007.4
20260505111817 80 0.0 0.0 0.00 0.00 0.00 26 1007.4
20260505111745 81 0.0 0.0 0.00 0.00 0.00 26 1007.4
20260505111713 81 0.0 0.0 0.00 0.00 0.00 27 1007.4
20260505111642 81 0.0 0.0 0.00 0.00 0.00 27 1007.4
20260505111610 81 0.0 0.0 0.00 0.00 0.00 27 1007.4
20260505111539 81 0.0 0.0 0.00 0.00 0.00 27 1007.4
20260505111507 81 0.0 0.0 0.00 0.00 0.00 27 1007.5
20260505111435 81 0.0 0.0 0.00 0.00 0.00 27 1007.5
20260505111404 81 0.0 0.0 0.00 0.00 0.00 27 1007.5
20260505111332 81 0.0 0.0 0.00 0.00 0.00 27 1007.5
20260505111301 80 0.0 0.0 0.00 0.00 0.00 27 1007.5
20260505111229 81 0.0 0.0 0.00 0.00 0.00 27 1007.5
20260505111158 81 0.0 0.0 0.00 0.00 0.00 27 1007.5
20260505111126 80 0.0 0.0 0.00 0.00 0.00 27 1007.5
20260505111054 80 0.0 0.0 0.00 0.00 0.00 27 1007.5
20260505111023 80 0.0 0.0 0.00 0.00 0.00 27 1007.5
20260505110951 80 0.0 0.0 0.00 0.00 0.00 27 1007.5
20260505110920 80 0.0 0.0 0.00 0.00 0.00 27 1007.5
20260505110848 80 0.0 0.0 0.00 0.00 0.00 27 1007.5
20260505110817 81 0.0 0.0 0.00 0.00 0.00 27 1007.6
20260505110745 81 0.0 0.0 0.00 0.00 0.00 27 1007.6
20260505110714 81 0.0 0.0 0.00 0.00 0.00 27 1007.5
20260505110642 81 0.0 0.0 0.00 0.00 0.00 28 1007.6
20260505110611 81 0.0 0.0 0.00 0.00 0.00 28 1007.6
20260505110539 81 0.0 0.0 0.00 0.00 0.00 28 1007.6
20260505110507 81 0.0 0.0 0.00 0.00 0.00 28 1007.6
20260505110436 81 0.0 0.0 0.00 0.00 0.00 28 1007.6
20260505110404 81 0.0 0.0 0.00 0.00 0.00 28 1007.6
20260505110333 81 0.0 0.0 0.00 0.00 0.00 28 1007.6
20260505110301 81 0.0 0.0 0.00 0.00 0.00 28 1007.6
20260505110229 81 0.0 0.0 0.00 0.00 0.00 28 1007.7
20260505110157 81 0.0 0.0 0.00 0.00 0.00 28 1007.7
20260505110126 80 0.0 0.0 0.00 0.00 0.00 28 1007.7
20260505102158 78 0.0 0.0 0.00 0.00 0.00 33 1008.2
20260505102126 78 0.0 0.0 0.00 0.00 0.00 33 1008.2
20260505102054 78 0.0 0.0 0.00 0.00 0.00 33 1008.3
20260505102022 78 0.0 0.0 0.00 0.00 0.00 33 1008.3
20260505101951 78 0.0 0.0 0.00 0.00 0.00 33 1008.3
20260505101919 78 0.0 0.0 0.00 0.00 0.00 33 1008.3
20260505101848 77 0.0 0.0 0.00 0.00 0.00 33 1008.4
20260505101815 77 0.0 0.0 0.00 0.00 0.00 33 1008.3
20260505101743 77 0.0 0.0 0.00 0.00 0.00 33 1008.3
20260505101712 77 0.0 0.0 0.00 0.00 0.00 33 1008.3
20260505101640 77 0.0 0.0 0.00 0.00 0.00 33 1008.4
20260505101608 76 0.0 0.0 0.00 0.00 0.00 33 1008.4
20260505101537 76 0.0 0.0 0.00 0.00 0.00 33 1008.4
20260505101505 75 0.0 0.0 0.00 0.00 0.00 32 1008.4
20260505101434 75 0.0 0.0 0.00 0.00 0.00 32 1008.4
20260505101402 75 0.0 0.0 0.00 0.00 0.00 32 1008.3
20260505101331 74 0.0 0.0 0.00 0.00 0.00 32 1008.4
20260505101259 74 0.0 0.0 0.00 0.00 0.00 32 1008.4
20260505101228 74 0.0 0.0 0.00 0.00 0.00 32 1008.4
20260505101156 74 0.0 0.0 0.00 0.00 0.00 32 1008.4
20260505101124 75 0.0 0.0 0.00 0.00 0.00 32 1008.4
20260505101053 75 0.0 0.0 0.00 0.00 0.00 32 1008.4
20260505101021 75 0.0 0.0 0.00 0.00 0.00 32 1008.4
20260505100918 75 0.0 0.0 0.00 0.00 0.00 32 1008.4
20260505100847 75 0.0 0.0 0.00 0.00 0.00 33 1008.4
20260505100815 75 0.0 0.0 0.00 0.00 0.00 33 1008.4
20260505100744 75 0.0 0.0 0.00 0.00 0.00 33 1008.5
20260505100712 75 0.0 0.0 0.00 0.00 0.00 33 1008.4
20260505100641 75 0.0 0.0 0.00 0.00 0.00 33 1008.4
20260505100609 76 0.0 0.0 0.00 0.00 0.00 34 1008.5
20260505100538 77 0.0 0.0 0.00 0.00 0.00 34 1008.5
20260505100506 77 0.0 0.0 0.00 0.00 0.00 35 1008.5
20260505100435 77 0.0 0.0 0.00 0.00 0.00 35 1008.5
20260505100403 78 0.0 0.0 0.00 0.00 0.00 36 1008.5
20260505100331 78 0.0 0.0 0.00 0.00 0.00 36 1008.5
20260505100300 78 0.0 0.0 0.00 0.00 0.00 36 1008.5
20260505100228 78 0.0 0.0 0.00 0.00 0.00 37 1008.5
20260505100157 78 0.0 0.0 0.00 0.00 0.00 37 1008.5
20260505100125 78 0.0 0.0 0.00 0.00 0.00 37 1008.5
20260505100054 78 0.0 0.0 0.00 0.00 0.00 36 1008.5
20260505100022 78 0.0 0.0 0.00 0.00 0.00 36 1008.5
20260505095951 77 0.0 0.0 0.00 0.00 0.00 37 1008.5
20260505095919 77 0.0 0.0 0.00 0.00 0.00 37 1008.5
20260505095845 77 0.0 0.0 0.00 0.00 0.00 37 1008.5
20260505095814 77 0.0 0.0 0.00 0.00 0.00 37 1008.5
20260505095742 76 0.0 0.0 0.00 0.00 0.00 37 1008.5
20260505095711 76 0.0 0.0 0.00 0.00 0.00 37 1008.6
20260505095639 76 0.0 0.0 0.00 0.00 0.00 37 1008.6
20260505095608 76 0.0 0.0 0.00 0.00 0.00 37 1008.6
20260505095535 75 0.0 0.0 0.00 0.00 0.00 37 1008.6
20260505095503 75 0.0 0.0 0.00 0.00 0.00 37 1008.6
20260505095431 75 0.0 0.0 0.00 0.00 0.00 37 1008.6
20260505095400 75 0.0 0.0 0.00 0.00 0.00 37 1008.6
20260505095326 75 0.0 0.0 0.00 0.00 0.00 37 1008.6
20260505095255 75 0.0 0.0 0.00 0.00 0.00 37 1008.6
20260505095223 75 0.0 0.0 0.00 0.00 0.00 37 1008.6
20260505095151 76 0.0 0.0 0.00 0.00 0.00 39 1008.6
20260505095120 76 0.0 0.0 0.00 0.00 0.00 39 1008.6
20260505095048 76 0.0 0.0 0.00 0.00 0.00 39 1008.6
20260505095017 76 0.0 0.0 0.00 0.00 0.00 39 1008.6
20260505094945 76 0.0 0.0 0.00 0.00 0.00 39 1008.7
20260505094914 76 0.0 0.0 0.00 0.00 0.00 39 1008.7
20260505094842 76 0.0 0.0 0.00 0.00 0.00 39 1008.7
20260505094811 75 0.0 0.0 0.00 0.00 0.00 39 1008.7
20260505094739 75 0.0 0.0 0.00 0.00 0.00 39 1008.7
20260505094707 75 0.0 0.0 0.00 0.00 0.00 39 1008.7
20260505094636 75 0.0 0.0 0.00 0.00 0.00 40 1008.7
20260505094604 75 0.0 0.0 0.00 0.00 0.00 40 1008.8
20260505094533 74 0.0 0.0 0.00 0.00 0.00 40 1008.7
20260505094501 74 0.0 0.0 0.00 0.00 0.00 40 1008.7
20260505094430 74 0.0 0.0 0.00 0.00 0.00 40 1008.8
20260505094358 74 0.0 0.0 0.00 0.00 0.00 40 1008.8
20260505094327 74 0.0 0.0 0.00 0.00 0.00 40 1008.8
20260505094255 74 0.0 0.0 0.00 0.00 0.00 40 1008.8
20260505094224 74 0.0 0.0 0.00 0.00 0.00 40 1008.8
20260505094152 74 0.0 0.0 0.00 0.00 0.00 40 1008.8
20260505094121 74 0.0 0.0 0.00 0.00 0.00 40 1008.8
20260505094049 74 0.0 0.0 0.00 0.00 0.00 40 1008.8
20260505094018 75 0.0 0.0 0.00 0.00 0.00 40 1008.8
20260505093945 75 0.0 0.0 0.00 0.00 0.00 40 1008.8
20260505093913 75 0.0 0.0 0.00 0.00 0.00 40 1008.8
20260505093842 75 0.0 0.0 0.00 0.00 0.00 41 1008.8
20260505093810 75 0.0 0.0 0.00 0.00 0.00 41 1008.8
20260505093711 75 0.0 0.0 0.00 0.00 0.00 41 1008.8
20260505093636 75 0.0 0.0 0.00 0.00 0.00 41 1008.8
20260505093604 75 0.0 0.0 0.00 0.00 0.00 41 1008.9
20260505093533 75 0.0 0.0 0.00 0.00 0.00 41 1008.9
20260505093501 75 0.0 0.0 0.00 0.00 0.00 41 1008.9
20260505093430 75 0.0 0.0 0.00 0.00 0.00 41 1008.9
20260505093358 75 0.0 0.0 0.00 0.00 0.00 41 1008.9
20260505093326 75 0.0 0.0 0.00 0.00 0.00 41 1008.9
20260505093255 74 0.0 0.0 0.00 0.00 0.00 41 1008.9
20260505093223 74 0.0 0.0 0.00 0.00 0.00 41 1008.9
20260505093152 74 0.0 0.0 0.00 0.00 0.00 41 1009.0
20260505093120 74 0.0 0.0 0.00 0.00 0.00 41 1008.9
20260505093049 74 0.0 0.0 0.00 0.00 0.00 41 1008.9
20260505093017 74 0.0 0.0 0.00 0.00 0.00 41 1008.9
20260505092945 74 0.0 0.0 0.00 0.00 0.00 41 1009.0
20260505092913 74 0.0 0.0 0.00 0.00 0.00 41 1008.9
20260505092842 74 0.0 0.0 0.00 0.00 0.00 42 1009.0
20260505092810 74 0.0 0.0 0.00 0.00 0.00 42 1008.9
20260505092739 74 0.0 0.0 0.00 0.00 0.00 42 1008.9
20260505092707 73 0.0 0.0 0.00 0.00 0.00 42 1009.0
20260505092636 73 0.0 0.0 0.00 0.00 0.00 42 1009.0
20260505092603 73 0.0 0.0 0.00 0.00 0.00 42 1009.0
20260505092532 73 0.0 0.0 0.00 0.00 0.00 42 1009.0
20260505092500 73 0.0 0.0 0.00 0.00 0.00 42 1009.0
20260505092428 73 0.0 0.0 0.00 0.00 0.00 42 1009.0
20260505092357 73 0.0 0.0 0.00 0.00 0.00 42 1009.0
20260505092325 72 0.0 0.0 0.00 0.00 0.00 42 1009.0
20260505092254 72 0.0 0.0 0.00 0.00 0.00 43 1009.0
20260505092222 72 0.0 0.0 0.00 0.00 0.00 43 1009.0
20260505092150 72 0.0 0.0 0.00 0.00 0.00 43 1009.1
20260505092118 72 0.0 0.0 0.00 0.00 0.00 43 1009.0
20260505092047 72 0.0 0.0 0.00 0.00 0.00 43 1009.1
20260505092015 72 0.0 0.0 0.00 0.00 0.00 43 1009.1
20260505091944 72 0.0 0.0 0.00 0.00 0.00 43 1009.1
20260505091912 72 0.0 0.0 0.00 0.00 0.00 43 1009.1
20260505091841 72 0.0 0.0 0.00 0.00 0.00 43 1009.1
20260505091809 72 0.0 0.0 0.00 0.00 0.00 43 1009.1
20260505091738 72 0.0 0.0 0.00 0.00 0.00 43 1009.1
20260505091706 72 0.0 0.0 0.00 0.00 0.00 43 1009.1
20260505091635 72 0.0 0.0 0.00 0.00 0.00 43 1009.1
20260505091603 71 0.0 0.0 0.00 0.00 0.00 43 1009.1
20260505091531 71 0.0 0.0 0.00 0.00 0.00 43 1009.1
20260505091500 71 0.0 0.0 0.00 0.00 0.00 43 1009.1
20260505091429 71 0.0 0.0 0.00 0.00 0.00 43 1009.1
20260505091357 71 0.0 0.0 0.00 0.00 0.00 43 1009.2
20260505091325 71 0.0 0.0 0.00 0.00 0.00 43 1009.1
20260505091254 71 0.0 0.0 0.00 0.00 0.00 43 1009.1
20260505091222 71 0.0 0.0 0.00 0.00 0.00 43 1009.2
20260505091151 70 0.0 0.0 0.00 0.00 0.00 43 1009.2
20260505091119 70 0.0 0.0 0.00 0.00 0.00 43 1009.2
20260505091048 70 0.0 0.0 0.00 0.00 0.00 43 1009.2
20260505091016 70 0.0 0.0 0.00 0.00 0.00 43 1009.2
20260505090945 70 0.0 0.0 0.00 0.00 0.00 43 1009.2
20260505090913 70 0.0 0.0 0.00 0.00 0.00 43 1009.2
20260505090842 70 0.0 0.0 0.00 0.00 0.00 43 1009.2
20260505090810 70 0.0 0.0 0.00 0.00 0.00 43 1009.2
20260505090739 70 0.0 0.0 0.00 0.00 0.00 43 1009.2
20260505090707 70 0.0 0.0 0.00 0.00 0.00 43 1009.2
20260505090636 70 0.0 0.0 0.00 0.00 0.00 43 1009.2
20260505090604 70 0.0 0.0 0.00 0.00 0.00 43 1009.2
20260505090533 70 0.0 0.0 0.00 0.00 0.00 42 1009.2
20260505090501 70 0.0 0.0 0.00 0.00 0.00 43 1009.2
20260505090430 70 0.0 0.0 0.00 0.00 0.00 43 1009.2
20260505090358 70 0.0 0.0 0.00 0.00 0.00 43 1009.2
20260505090327 70 0.0 0.0 0.00 0.00 0.00 43 1009.2
20260505090255 70 0.0 0.0 0.00 0.00 0.00 43 1009.3
20260505090224 70 0.0 0.0 0.00 0.00 0.00 43 1009.3
20260505090152 70 0.0 0.0 0.00 0.00 0.00 43 1009.3
20260505090120 70 0.0 0.0 0.00 0.00 0.00 43 1009.3
20260505090049 70 0.0 0.0 0.00 0.00 0.00 43 1009.2
20260505090017 70 0.0 0.0 0.00 0.00 0.00 43 1009.2
20260505085946 70 0.0 0.0 0.00 0.00 0.00 43 1009.2
20260505085914 70 0.0 0.0 0.00 0.00 0.00 43 1009.2
20260505085843 70 0.0 0.0 0.00 0.00 0.00 43 1009.2
20260505085811 70 0.0 0.0 0.00 0.00 0.00 43 1009.2
20260505085740 70 0.0 0.0 0.00 0.00 0.00 43 1009.2
20260505085708 70 0.0 0.0 0.00 0.00 0.00 43 1009.2
20260505085637 71 0.0 0.0 0.00 0.00 0.00 43 1009.2
20260505085604 71 0.0 0.0 0.00 0.00 0.00 43 1009.2
20260505085533 71 0.0 0.0 0.00 0.00 0.00 43 1009.2
20260505085501 71 0.0 0.0 0.00 0.00 0.00 43 1009.2
20260505085430 71 0.0 0.0 0.00 0.00 0.00 43 1009.2
20260505085358 71 0.0 0.0 0.00 0.00 0.00 43 1009.2
20260505085327 70 0.0 0.0 0.00 0.00 0.00 43 1009.2
20260505085255 70 0.0 0.0 0.00 0.00 0.00 43 1009.1
20260505085224 70 0.0 0.0 0.00 0.00 0.00 43 1009.2
20260505085152 70 0.0 0.0 0.00 0.00 0.00 43 1009.2
20260505085120 70 0.0 0.0 0.00 0.00 0.00 43 1009.2
20260505085048 70 0.0 0.0 0.00 0.00 0.00 43 1009.2
20260505085017 69 0.0 0.0 0.00 0.00 0.00 43 1009.2
20260505084945 70 0.0 0.0 0.00 0.00 0.00 43 1009.2
20260505084914 70 0.0 0.0 0.00 0.00 0.00 43 1009.2
20260505084842 70 0.0 0.0 0.00 0.00 0.00 43 1009.2
20260505084810 70 0.0 0.0 0.00 0.00 0.00 44 1009.2
20260505084739 70 0.0 0.0 0.00 0.00 0.00 44 1009.2
20260505084707 70 0.0 0.0 0.00 0.00 0.00 44 1009.2
20260505084606 70 0.0 0.0 0.00 0.00 0.00 44 1009.2
20260505084533 71 0.0 0.0 0.00 0.00 0.00 44 1009.2
20260505084501 71 0.0 0.0 0.00 0.00 0.00 44 1009.2
20260505084430 71 0.0 0.0 0.00 0.00 0.00 44 1009.2
20260505084358 71 0.0 0.0 0.00 0.00 0.00 44 1009.2
20260505084327 71 0.0 0.0 0.00 0.00 0.00 44 1009.2
20260505084255 71 0.0 0.0 0.00 0.00 0.00 44 1009.3
20260505084223 71 0.0 0.0 0.00 0.00 0.00 44 1009.3
20260505084153 71 0.0 0.0 0.00 0.00 0.00 44 1009.2
20260505084120 71 0.0 0.0 0.00 0.00 0.00 44 1009.3
20260505084049 71 0.0 0.0 0.00 0.00 0.00 44 1009.2
20260505084017 71 0.0 0.0 0.00 0.00 0.00 44 1009.3
20260505083946 71 0.0 0.0 0.00 0.00 0.00 44 1009.3
20260505083914 71 0.0 0.0 0.00 0.00 0.00 44 1009.3
20260505083843 70 0.0 0.0 0.00 0.00 0.00 44 1009.3
20260505083811 70 0.0 0.0 0.00 0.00 0.00 44 1009.3
20260505083740 70 0.0 0.0 0.00 0.00 0.00 44 1009.3
20260505083708 70 0.0 0.0 0.00 0.00 0.00 44 1009.3
20260505083637 70 0.0 0.0 0.00 0.00 0.00 44 1009.2
20260505083605 70 0.0 0.0 0.00 0.00 0.00 44 1009.3
20260505083533 70 0.0 0.0 0.00 0.00 0.00 44 1009.3
20260505083502 70 0.0 0.0 0.00 0.00 0.00 44 1009.3
20260505083430 70 0.0 0.0 0.00 0.00 0.00 43 1009.3
20260505083359 70 0.0 0.0 0.00 0.00 0.00 43 1009.3
20260505083327 70 0.0 0.0 0.00 0.00 0.00 43 1009.3
20260505083256 70 0.0 0.0 0.00 0.00 0.00 43 1009.3
20260505083224 70 0.0 0.0 0.00 0.00 0.00 43 1009.3
20260505083153 71 0.0 0.0 0.00 0.00 0.00 43 1009.3
20260505083121 71 0.0 0.0 0.00 0.00 0.00 44 1009.3
20260505083050 71 0.0 0.0 0.00 0.00 0.00 44 1009.3
20260505083018 71 0.0 0.0 0.00 0.00 0.00 44 1009.3
20260505082946 71 0.0 0.0 0.00 0.00 0.00 44 1009.3
20260505082915 71 0.0 0.0 0.00 0.00 0.00 44 1009.3
20260505082843 71 0.0 0.0 0.00 0.00 0.00 44 1009.3
20260505082812 71 0.0 0.0 0.00 0.00 0.00 45 1009.3
20260505082740 71 0.0 0.0 0.00 0.00 0.00 45 1009.3
20260505082709 71 0.0 0.0 0.00 0.00 0.00 45 1009.3
20260505082637 71 0.0 0.0 0.00 0.00 0.00 45 1009.3
20260505082606 71 0.0 0.0 0.00 0.00 0.00 45 1009.3
20260505082534 71 0.0 0.0 0.00 0.00 0.00 45 1009.3
20260505082503 71 0.0 0.0 0.00 0.00 0.00 45 1009.3
20260505082431 71 0.0 0.0 0.00 0.00 0.00 45 1009.3
20260505082359 71 0.0 0.0 0.00 0.00 0.00 45 1009.3
20260505082327 71 0.0 0.0 0.00 0.00 0.00 45 1009.3
20260505082256 71 0.0 0.0 0.00 0.00 0.00 45 1009.3
20260505082224 71 0.0 0.0 0.00 0.00 0.00 45 1009.3
20260505082153 71 0.0 0.0 0.00 0.00 0.00 45 1009.3
20260505082121 71 0.0 0.0 0.00 0.00 0.00 45 1009.3
20260505082049 71 0.0 0.0 0.00 0.00 0.00 45 1009.3
20260505082017 71 0.0 0.0 0.00 0.00 0.00 45 1009.3
20260505081946 71 0.0 0.0 0.00 0.00 0.00 46 1009.3
20260505081914 71 0.0 0.0 0.00 0.00 0.00 46 1009.3
20260505081843 71 0.0 0.0 0.00 0.00 0.00 46 1009.3
20260505081811 71 0.0 0.0 0.00 0.00 0.00 46 1009.3
20260505081740 71 0.0 0.0 0.00 0.00 0.00 46 1009.3
20260505081708 71 0.0 0.0 0.00 0.00 0.00 46 1009.3
20260505081637 71 0.0 0.0 0.00 0.00 0.00 46 1009.3
20260505081605 71 0.0 0.0 0.00 0.00 0.00 46 1009.3
20260505081534 71 0.0 0.0 0.00 0.00 0.00 46 1009.3
20260505081502 71 0.0 0.0 0.00 0.00 0.00 46 1009.3
20260505081430 71 0.0 0.0 0.00 0.00 0.00 47 1009.3
20260505081359 70 0.0 0.0 0.00 0.00 0.00 47 1009.3
20260505081327 70 0.0 0.0 0.00 0.00 0.00 47 1009.3
20260505081256 70 0.0 0.0 0.00 0.00 0.00 47 1009.3
20260505081224 70 0.0 0.0 0.00 0.00 0.00 47 1009.3
20260505081153 70 0.0 0.0 0.00 0.00 0.00 47 1009.3
20260505081121 70 0.0 0.0 0.00 0.00 0.00 47 1009.4
20260505081049 70 0.0 0.0 0.00 0.00 0.00 47 1009.3
20260505081018 70 0.0 0.0 0.00 0.00 0.00 47 1009.3
20260505080946 70 0.0 0.0 0.00 0.00 0.00 48 1009.4
20260505080915 70 0.0 0.0 0.00 0.00 0.00 48 1009.4
20260505080843 70 0.0 0.0 0.00 0.00 0.00 48 1009.4
20260505080812 70 0.0 0.0 0.00 0.00 0.00 48 1009.4
20260505080740 70 0.0 0.0 0.00 0.00 0.00 48 1009.4
20260505080709 70 0.0 0.0 0.00 0.00 0.00 48 1009.4
20260505080637 70 0.0 0.0 0.00 0.00 0.00 49 1009.4
20260505080606 70 0.0 0.0 0.00 0.00 0.00 49 1009.4
20260505080534 70 0.0 0.0 0.00 0.00 0.00 49 1009.4
20260505080503 69 0.0 0.0 0.00 0.00 0.00 49 1009.4
20260505080431 69 0.0 0.0 0.00 0.00 0.00 49 1009.4
20260505080359 69 0.0 0.0 0.00 0.00 0.00 49 1009.4
20260505080328 70 0.0 0.0 0.00 0.00 0.00 49 1009.4
20260505080256 70 0.0 0.0 0.00 0.00 0.00 49 1009.4
20260505080225 70 0.0 0.0 0.00 0.00 0.00 49 1009.4
20260505080153 70 0.0 0.0 0.00 0.00 0.00 49 1009.4
20260505080122 70 0.0 0.0 0.00 0.00 0.00 50 1009.4
20260505080050 70 0.0 0.0 0.00 0.00 0.00 50 1009.4
20260505080019 70 0.0 0.0 0.00 0.00 0.00 50 1009.4
20260505075947 70 0.0 0.0 0.00 0.00 0.00 51 1009.5
20260505075916 70 0.0 0.0 0.00 0.00 0.00 51 1009.5
20260505075844 70 0.0 0.0 0.00 0.00 0.00 52 1009.5
20260505075813 70 0.0 0.0 0.00 0.00 0.00 51 1009.5
20260505075741 70 0.0 0.0 0.00 0.00 0.00 52 1009.5
20260505075710 70 0.0 0.0 0.00 0.00 0.00 53 1009.5
20260505075638 70 0.0 0.0 0.00 0.00 0.00 53 1009.4
20260505075607 70 0.0 0.0 0.00 0.00 0.00 53 1009.4
20260505075535 69 0.0 0.0 0.00 0.00 0.00 53 1009.5
20260505075504 69 0.0 0.0 0.00 0.00 0.00 53 1009.4
20260505075432 69 0.0 0.0 0.00 0.00 0.00 53 1009.5
20260505075401 69 0.0 0.0 0.00 0.00 0.00 53 1009.5
20260505075329 69 0.0 0.0 0.00 0.00 0.00 53 1009.5
20260505075257 69 0.0 0.0 0.00 0.00 0.00 53 1009.5
20260505075226 69 0.0 0.0 0.00 0.00 0.00 53 1009.5
20260505075155 69 0.0 0.0 0.00 0.00 0.00 54 1009.5
20260505075123 69 0.0 0.0 0.00 0.00 0.00 54 1009.5
20260505075051 69 0.0 0.0 0.00 0.00 0.00 54 1009.5
20260505075020 68 0.0 0.0 0.00 0.00 0.00 54 1009.5
20260505074948 68 0.0 0.0 0.00 0.00 0.00 54 1009.5
20260505074917 68 0.0 0.0 0.00 0.00 0.00 54 1009.5
20260505074845 68 0.0 0.0 0.00 0.00 0.00 54 1009.5
20260505074813 68 0.0 0.0 0.00 0.00 0.00 54 1009.5
20260505074742 68 0.0 0.0 0.00 0.00 0.00 54 1009.5
20260505074710 68 0.0 0.0 0.00 0.00 0.00 55 1009.5
20260505074639 67 0.0 0.0 0.00 0.00 0.00 55 1009.5
20260505074536 67 0.0 0.0 0.00 0.00 0.00 55 1009.5
20260505074433 67 0.0 0.0 0.00 0.00 0.00 55 1009.5
20260505074401 68 0.0 0.0 0.00 0.00 0.00 56 1009.5
20260505074330 67 0.0 0.0 0.00 0.00 0.00 56 1009.5
20260505074258 67 0.0 0.0 0.00 0.00 0.00 56 1009.5
20260505074226 67 0.0 0.0 0.00 0.00 0.00 56 1009.5
20260505074155 67 0.0 0.0 0.00 0.00 0.00 56 1009.5
20260505074123 67 0.0 0.0 0.00 0.00 0.00 56 1009.6
20260505074052 67 0.0 0.0 0.00 0.00 0.00 56 1009.5
20260505074020 67 0.0 0.0 0.00 0.00 0.00 56 1009.5
20260505073947 67 0.0 0.0 0.00 0.00 0.00 56 1009.5
20260505073916 67 0.0 0.0 0.00 0.00 0.00 56 1009.6
20260505073844 67 0.0 0.0 0.00 0.00 0.00 57 1009.6
20260505073813 67 0.0 0.0 0.00 0.00 0.00 57 1009.6
20260505073741 67 0.0 0.0 0.00 0.00 0.00 57 1009.6
20260505073709 66 0.0 0.0 0.00 0.00 0.00 57 1009.6
20260505073638 66 0.0 0.0 0.00 0.00 0.00 57 1009.6
20260505073606 66 0.0 0.0 0.00 0.00 0.00 57 1009.6
20260505073535 66 0.0 0.0 0.00 0.00 0.00 57 1009.6
20260505073503 66 0.0 0.0 0.00 0.00 0.00 57 1009.6
20260505073432 66 0.0 0.0 0.00 0.00 0.00 57 1009.5
20260505073400 66 0.0 0.0 0.00 0.00 0.00 57 1009.6
20260505073329 66 0.0 0.0 0.00 0.00 0.00 57 1009.6
20260505073257 66 0.0 0.0 0.00 0.00 0.00 57 1009.5
20260505073225 66 0.0 0.0 0.00 0.00 0.00 57 1009.5
20260505073154 66 0.0 0.0 0.00 0.00 0.00 57 1009.6
20260505073122 66 0.0 0.0 0.00 0.00 0.00 57 1009.6
20260505073051 66 0.0 0.0 0.00 0.00 0.00 57 1009.6
20260505073019 65 0.0 0.0 0.00 0.00 0.00 57 1009.5
20260505072948 65 0.0 0.0 0.00 0.00 0.00 57 1009.6
20260505072916 65 0.0 0.0 0.00 0.00 0.00 57 1009.5
20260505072845 65 0.0 0.0 0.00 0.00 0.00 57 1009.5
20260505072813 65 0.0 0.0 0.00 0.00 0.00 57 1009.6
20260505072741 65 0.0 0.0 0.00 0.00 0.00 57 1009.6
20260505072709 65 0.0 0.0 0.00 0.00 0.00 57 1009.6
20260505072638 65 0.0 0.0 0.00 0.00 0.00 57 1009.6
20260505072606 65 0.0 0.0 0.00 0.00 0.00 57 1009.6
20260505072535 65 0.0 0.0 0.00 0.00 0.00 57 1009.6
20260505072503 65 0.0 0.0 0.00 0.00 0.00 57 1009.6
20260505072432 65 0.0 0.0 0.00 0.00 0.00 57 1009.6
20260505072400 65 0.0 0.0 0.00 0.00 0.00 57 1009.6
20260505072328 65 0.0 0.0 0.00 0.00 0.00 57 1009.7
20260505072257 65 0.0 0.0 0.00 0.00 0.00 57 1009.6
20260505072225 65 0.0 0.0 0.00 0.00 0.00 57 1009.6
20260505072154 65 0.0 0.0 0.00 0.00 0.00 57 1009.7
20260505072122 65 0.0 0.0 0.00 0.00 0.00 57 1009.6
20260505072051 65 0.0 0.0 0.00 0.00 0.00 58 1009.6
20260505072019 65 0.0 0.0 0.00 0.00 0.00 58 1009.6
20260505071948 65 0.0 0.0 0.00 0.00 0.00 58 1009.7
20260505071916 65 0.0 0.0 0.00 0.00 0.00 58 1009.6
20260505071845 65 0.0 0.0 0.00 0.00 0.00 58 1009.7
20260505071813 65 0.0 0.0 0.00 0.00 0.00 58 1009.7
20260505071742 65 0.0 0.0 0.00 0.00 0.00 58 1009.7
20260505071710 65 0.0 0.0 0.00 0.00 0.00 58 1009.7
20260505071639 65 0.0 0.0 0.00 0.00 0.00 58 1009.7
20260505071607 65 0.0 0.0 0.00 0.00 0.00 58 1009.7
20260505071535 65 0.0 0.0 0.00 0.00 0.00 58 1009.7
20260505071504 65 0.0 0.0 0.00 0.00 0.00 58 1009.7
20260505071432 65 0.0 0.0 0.00 0.00 0.00 59 1009.7
20260505071400 64 0.0 0.0 0.00 0.00 0.00 59 1009.7
20260505071329 64 0.0 0.0 0.00 0.00 0.00 59 1009.7
20260505071257 64 0.0 0.0 0.00 0.00 0.00 59 1009.7
20260505071225 64 0.0 0.0 0.00 0.00 0.00 59 1009.7
20260505071154 64 0.0 0.0 0.00 0.00 0.00 59 1009.7
20260505071122 64 0.0 0.0 0.00 0.00 0.00 59 1009.7
20260505071051 64 0.0 0.0 0.00 0.00 0.00 59 1009.6
20260505071019 64 0.0 0.0 0.00 0.00 0.00 59 1009.7
20260505070948 64 0.0 0.0 0.00 0.00 0.00 59 1009.7
20260505070916 64 0.0 0.0 0.00 0.00 0.00 59 1009.7
20260505070845 64 0.0 0.0 0.00 0.00 0.00 60 1009.7
20260505070813 64 0.0 0.0 0.00 0.00 0.00 60 1009.7
20260505070742 64 0.0 0.0 0.00 0.00 0.00 60 1009.7
20260505070710 64 0.0 0.0 0.00 0.00 0.00 60 1009.7
20260505070639 64 0.0 0.0 0.00 0.00 0.00 60 1009.7
20260505070607 64 0.0 0.0 0.00 0.00 0.00 60 1009.7
20260505070535 64 0.0 0.0 0.00 0.00 0.00 60 1009.7
20260505070504 64 0.0 0.0 0.00 0.00 0.00 60 1009.7
20260505070432 64 0.0 0.0 0.00 0.00 0.00 60 1009.7
20260505070401 64 0.0 0.0 0.00 0.00 0.00 60 1009.7
20260505070328 64 0.0 0.0 0.00 0.00 0.00 60 1009.7
20260505070257 64 0.0 0.0 0.00 0.00 0.00 60 1009.8
20260505070225 64 0.0 0.0 0.00 0.00 0.00 60 1009.7
20260505070154 64 0.0 0.0 0.00 0.00 0.00 60 1009.7
20260505070122 64 0.0 0.0 0.00 0.00 0.00 60 1009.7
20260505070051 64 0.0 0.0 0.00 0.00 0.00 60 1009.8
20260505070018 64 0.0 0.0 0.00 0.00 0.00 60 1009.8
20260505065947 64 0.0 0.0 0.00 0.00 0.00 60 1009.7
20260505065915 64 0.0 0.0 0.00 0.00 0.00 60 1009.8
20260505065844 64 0.0 0.0 0.00 0.00 0.00 61 1009.8
20260505065812 64 0.0 0.0 0.00 0.00 0.00 61 1009.7
20260505065740 64 0.0 0.0 0.00 0.00 0.00 61 1009.8
20260505065709 64 0.0 0.0 0.00 0.00 0.00 61 1009.8
20260505065638 64 0.0 0.0 0.00 0.00 0.00 61 1009.8
20260505065606 64 0.0 0.0 0.00 0.00 0.00 61 1009.8
20260505065535 64 0.0 0.0 0.00 0.00 0.00 61 1009.8
20260505065503 63 0.0 0.0 0.00 0.00 0.00 61 1009.8
20260505065431 63 0.0 0.0 0.00 0.00 0.00 61 1009.8
20260505065400 63 0.0 0.0 0.00 0.00 0.00 61 1009.8
20260505065328 63 0.0 0.0 0.00 0.00 0.00 61 1009.8
20260505065257 63 0.0 0.0 0.00 0.00 0.00 61 1009.8
20260505065225 63 0.0 0.0 0.00 0.00 0.00 61 1009.8
20260505065154 63 0.0 0.0 0.00 0.00 0.00 61 1009.8
20260505065122 63 0.0 0.0 0.00 0.00 0.00 61 1009.8
20260505065051 63 0.0 0.0 0.00 0.00 0.00 61 1009.8
20260505065019 63 0.0 0.0 0.00 0.00 0.00 62 1009.8
20260505064948 63 0.0 0.0 0.00 0.00 0.00 62 1009.8
20260505064916 63 0.0 0.0 0.00 0.00 0.00 62 1009.8
20260505064845 63 0.0 0.0 0.00 0.00 0.00 62 1009.8
20260505064813 63 0.0 0.0 0.00 0.00 0.00 62 1009.8
20260505064742 63 0.0 0.0 0.00 0.00 0.00 62 1009.8
20260505064710 63 0.0 0.0 0.00 0.00 0.00 62 1009.8
20260505064638 63 0.0 0.0 0.00 0.00 0.00 62 1009.8
20260505064607 63 0.0 0.0 0.00 0.00 0.00 62 1009.7
20260505064535 63 0.0 0.0 0.00 0.00 0.00 62 1009.7
20260505064504 63 0.0 0.0 0.00 0.00 0.00 62 1009.8
20260505064432 63 0.0 0.0 0.00 0.00 0.00 62 1009.8
20260505064401 63 0.0 0.0 0.00 0.00 0.00 62 1009.7
20260505064329 63 0.0 0.0 0.00 0.00 0.00 63 1009.7
20260505064258 63 0.0 0.0 0.00 0.00 0.00 63 1009.8
20260505064226 63 0.0 0.0 0.00 0.00 0.00 63 1009.8
20260505064155 63 0.0 0.0 0.00 0.00 0.00 63 1009.8
20260505064122 63 0.0 0.0 0.00 0.00 0.00 63 1009.8
20260505064051 63 0.0 0.0 0.00 0.00 0.00 63 1009.8
20260505064019 63 0.0 0.0 0.00 0.00 0.00 63 1009.8
20260505063948 63 0.0 0.0 0.00 0.00 0.00 63 1009.8
20260505063916 63 0.0 0.0 0.00 0.00 0.00 63 1009.8
20260505063845 63 0.0 0.0 0.00 0.00 0.00 63 1009.8
20260505063813 63 0.0 0.0 0.00 0.00 0.00 64 1009.8
20260505063742 63 0.0 0.0 0.00 0.00 0.00 64 1009.7
20260505063710 63 0.0 0.0 0.00 0.00 0.00 64 1009.8
20260505063639 63 0.0 0.0 0.00 0.00 0.00 64 1009.7
20260505063607 63 0.0 0.0 0.00 0.00 0.00 64 1009.8
20260505063536 63 0.0 0.0 0.00 0.00 0.00 64 1009.7
20260505063504 63 0.0 0.0 0.00 0.00 0.00 64 1009.8
20260505063433 63 0.0 0.0 0.00 0.00 0.00 64 1009.8
20260505063402 63 0.0 0.0 0.00 0.00 0.00 65 1009.8
20260505063330 63 0.0 0.0 0.00 0.00 0.00 65 1009.8
20260505063258 62 0.0 0.0 0.00 0.00 0.00 65 1009.8
20260505063226 62 0.0 0.0 0.00 0.00 0.00 65 1009.8
20260505063155 62 0.0 0.0 0.00 0.00 0.00 65 1009.8
20260505063124 62 0.0 0.0 0.00 0.00 0.00 65 1009.8
20260505063052 62 0.0 0.0 0.00 0.00 0.00 66 1009.8
20260505063020 62 0.0 0.0 0.00 0.00 0.00 66 1009.8
20260505062949 62 0.0 0.0 0.00 0.00 0.00 66 1009.9
20260505062917 62 0.0 0.0 0.00 0.00 0.00 66 1009.9
20260505062846 62 0.0 0.0 0.00 0.00 0.00 66 1009.9
20260505062814 62 0.0 0.0 0.00 0.00 0.00 66 1009.9
20260505062743 62 0.0 0.0 0.00 0.00 0.00 66 1009.9
20260505062711 62 0.0 0.0 0.00 0.00 0.00 66 1009.9
20260505062640 62 0.0 0.0 0.00 0.00 0.00 66 1009.9
20260505062608 62 0.0 0.0 0.00 0.00 0.00 67 1009.9
20260505062537 62 0.0 0.0 0.00 0.00 0.00 67 1009.9
20260505062505 62 0.0 0.0 0.00 0.00 0.00 67 1009.9
20260505062434 62 0.0 0.0 0.00 0.00 0.00 67 1009.9
20260505062402 62 0.0 0.0 0.00 0.00 0.00 67 1009.9
20260505062330 62 0.0 0.0 0.00 0.00 0.00 67 1010.0
20260505062259 62 0.0 0.0 0.00 0.00 0.00 67 1009.9
20260505062227 61 0.0 0.0 0.00 0.00 0.00 67 1009.9
20260505062156 61 0.0 0.0 0.00 0.00 0.00 67 1009.9
20260505062124 61 0.0 0.0 0.00 0.00 0.00 67 1009.9
20260505062053 61 0.0 0.0 0.00 0.00 0.00 67 1009.9
20260505062021 61 0.0 0.0 0.00 0.00 0.00 67 1010.0
20260505061950 61 0.0 0.0 0.00 0.00 0.00 67 1009.9
20260505061918 61 0.0 0.0 0.00 0.00 0.00 67 1009.9
20260505061847 61 0.0 0.0 0.00 0.00 0.00 68 1010.0
20260505061744 61 0.0 0.0 0.00 0.00 0.00 68 1010.0
20260505061712 61 0.0 0.0 0.00 0.00 0.00 68 1010.0
20260505061640 61 0.0 0.0 0.00 0.00 0.00 68 1010.0
20260505061609 61 0.0 0.0 0.00 0.00 0.00 68 1010.0
20260505061537 61 0.0 0.0 0.00 0.00 0.00 68 1010.0
20260505061506 60 0.0 0.0 0.00 0.00 0.00 68 1010.0
20260505061434 60 0.0 0.0 0.00 0.00 0.00 68 1010.0
20260505061403 60 0.0 0.0 0.00 0.00 0.00 68 1010.0
20260505061331 60 0.0 0.0 0.00 0.00 0.00 68 1010.0
20260505061300 60 0.0 0.0 0.00 0.00 0.00 68 1010.0
20260505061228 60 0.0 0.0 0.00 0.00 0.00 68 1010.0
20260505061157 60 0.0 0.0 0.00 0.00 0.00 68 1010.0
20260505061125 60 0.0 0.0 0.00 0.00 0.00 68 1010.0
20260505061054 60 0.0 0.0 0.00 0.00 0.00 68 1010.0
20260505061022 60 0.0 0.0 0.00 0.00 0.00 68 1010.0
20260505060951 60 0.0 0.0 0.00 0.00 0.00 68 1010.0
20260505060919 60 0.0 0.0 0.00 0.00 0.00 68 1010.0
20260505060848 60 0.0 0.0 0.00 0.00 0.00 68 1010.0
20260505060816 60 0.0 0.0 0.00 0.00 0.00 68 1010.0
20260505060745 60 0.0 0.0 0.00 0.00 0.00 68 1010.0
20260505060713 60 0.0 0.0 0.00 0.00 0.00 69 1010.0
20260505060642 60 0.0 0.0 0.00 0.00 0.00 69 1010.0
20260505060610 60 0.0 0.0 0.00 0.00 0.00 69 1010.0
20260505060539 60 0.0 0.0 0.00 0.00 0.00 69 1010.0
20260505060507 60 0.0 0.0 0.00 0.00 0.00 69 1010.0
20260505060436 60 0.0 0.0 0.00 0.00 0.00 69 1010.0
20260505060404 60 0.0 0.0 0.00 0.00 0.00 69 1010.0
20260505060301 60 0.0 0.0 0.00 0.00 0.00 69 1010.0
20260505060230 60 0.0 0.0 0.00 0.00 0.00 69 1010.0
20260505060158 59 0.0 0.0 0.00 0.00 0.00 69 1010.1
20260505060127 59 0.0 0.0 0.00 0.00 0.00 69 1010.1
20260505060053 59 0.0 0.0 0.00 0.00 0.00 69 1010.1
20260505060022 59 0.0 0.0 0.00 0.00 0.00 69 1010.1
20260505055950 59 0.0 0.0 0.00 0.00 0.00 69 1010.1
20260505055919 59 0.0 0.0 0.00 0.00 0.00 69 1010.1
20260505055847 59 0.0 0.0 0.00 0.00 0.00 69 1010.1
20260505055816 59 0.0 0.0 0.00 0.00 0.00 69 1010.1
20260505055744 59 0.0 0.0 0.00 0.00 0.00 69 1010.1
20260505055713 59 0.0 0.0 0.00 0.00 0.00 69 1010.1
20260505055641 59 0.0 0.0 0.00 0.00 0.00 70 1010.1
20260505055610 59 0.0 0.0 0.00 0.00 0.00 70 1010.1
20260505055538 59 0.0 0.0 0.00 0.00 0.00 70 1010.1
20260505055507 59 0.0 0.0 0.00 0.00 0.00 70 1010.1
20260505055434 59 0.0 0.0 0.00 0.00 0.00 70 1010.1
20260505055403 59 0.0 0.0 0.00 0.00 0.00 70 1010.1
20260505055331 59 0.0 0.0 0.00 0.00 0.00 70 1010.1
20260505055300 59 0.0 0.0 0.00 0.00 0.00 70 1010.1
20260505055228 59 0.0 0.0 0.00 0.00 0.00 70 1010.0
20260505055156 59 0.0 0.0 0.00 0.00 0.00 70 1010.0
20260505055125 59 0.0 0.0 0.00 0.00 0.00 70 1010.1
20260505055053 59 0.0 0.0 0.00 0.00 0.00 70 1010.0
20260505055021 59 0.0 0.0 0.00 0.00 0.00 70 1010.0
20260505054918 59 0.0 0.0 0.00 0.00 0.00 70 1010.1
20260505054845 59 0.0 0.0 0.00 0.00 0.00 70 1010.1
20260505054813 59 0.0 0.0 0.00 0.00 0.00 70 1010.1
20260505054742 59 0.0 0.0 0.00 0.00 0.00 70 1010.0
20260505054710 58 0.0 0.0 0.00 0.00 0.00 70 1010.0
20260505054639 58 0.0 0.0 0.00 0.00 0.00 70 1010.1
20260505054607 58 0.0 0.0 0.00 0.00 0.00 71 1010.1
20260505054536 58 0.0 0.0 0.00 0.00 0.00 71 1010.0
20260505054504 58 0.0 0.0 0.00 0.00 0.00 71 1010.0
20260505054433 58 0.0 0.0 0.00 0.00 0.00 71 1010.0
20260505054401 58 0.0 0.0 0.00 0.00 0.00 71 1010.0
20260505054330 58 0.0 0.0 0.00 0.00 0.00 71 1010.1
20260505054258 58 0.0 0.0 0.00 0.00 0.00 71 1010.1
20260505054227 58 0.0 0.0 0.00 0.00 0.00 71 1010.1
20260505054155 58 0.0 0.0 0.00 0.00 0.00 71 1010.1
20260505054124 58 0.0 0.0 0.00 0.00 0.00 71 1010.1
20260505054052 58 0.0 0.0 0.00 0.00 0.00 71 1010.1
20260505054021 58 0.0 0.0 0.00 0.00 0.00 71 1010.1
20260505053948 58 0.0 0.0 0.00 0.00 0.00 71 1010.1
20260505053917 58 0.0 0.0 0.00 0.00 0.00 71 1010.1
20260505053845 58 0.0 0.0 0.00 0.00 0.00 71 1010.1
20260505053814 58 0.0 0.0 0.00 0.00 0.00 71 1010.1
20260505053742 57 0.0 0.0 0.00 0.00 0.00 71 1010.1
20260505053711 57 0.0 0.0 0.00 0.00 0.00 71 1010.1
20260505053639 57 0.0 0.0 0.00 0.00 0.00 71 1010.2
20260505053607 57 0.0 0.0 0.00 0.00 0.00 71 1010.2
20260505053536 57 0.0 0.0 0.00 0.00 0.00 71 1010.1
20260505053504 57 0.0 0.0 0.00 0.00 0.00 71 1010.1
20260505053401 57 0.0 0.0 0.00 0.00 0.00 71 1010.1
20260505053330 57 0.0 0.0 0.00 0.00 0.00 71 1010.1
20260505053258 57 0.0 0.0 0.00 0.00 0.00 71 1010.1
20260505053226 57 0.0 0.0 0.00 0.00 0.00 71 1010.1
20260505053155 57 0.0 0.0 0.00 0.00 0.00 71 1010.1
20260505053124 57 0.0 0.0 0.00 0.00 0.00 71 1010.0
20260505053052 57 0.0 0.0 0.00 0.00 0.00 71 1010.0
20260505053020 57 0.0 0.0 0.00 0.00 0.00 71 1010.0
20260505052949 57 0.0 0.0 0.00 0.00 0.00 71 1010.0
20260505052917 57 0.0 0.0 0.00 0.00 0.00 71 1010.0
20260505052846 57 0.0 0.0 0.00 0.00 0.00 71 1010.0
20260505052814 57 0.0 0.0 0.00 0.00 0.00 71 1010.1
20260505052742 56 0.0 0.0 0.00 0.00 0.00 71 1010.1
20260505052711 56 0.0 0.0 0.00 0.00 0.00 71 1010.1
20260505052640 56 0.0 0.0 0.00 0.00 0.00 72 1010.1
20260505052608 56 0.0 0.0 0.00 0.00 0.00 71 1010.1
20260505052536 56 0.0 0.0 0.00 0.00 0.00 71 1010.1
20260505052505 56 0.0 0.0 0.00 0.00 0.00 71 1010.1
20260505052400 56 0.0 0.0 0.00 0.00 0.00 71 1010.1
20260505052329 56 0.0 0.0 0.00 0.00 0.00 71 1010.1
20260505052257 56 0.0 0.0 0.00 0.00 0.00 71 1010.1
20260505052226 56 0.0 0.0 0.00 0.00 0.00 71 1010.1
20260505052154 56 0.0 0.0 0.00 0.00 0.00 71 1010.1
20260505052123 56 0.0 0.0 0.00 0.00 0.00 71 1010.0
20260505052051 56 0.0 0.0 0.00 0.00 0.00 71 1010.1
20260505052019 56 0.0 0.0 0.00 0.00 0.00 71 1010.1
20260505051948 56 0.0 0.0 0.00 0.00 0.00 71 1010.1
20260505051916 56 0.0 0.0 0.00 0.00 0.00 71 1010.1
20260505051845 55 0.0 0.0 0.00 0.00 0.00 71 1010.1
20260505051813 55 0.0 0.0 0.00 0.00 0.00 71 1010.1
20260505051742 55 0.0 0.0 0.00 0.00 0.00 71 1010.1
20260505051710 55 0.0 0.0 0.00 0.00 0.00 71 1010.1
20260505051639 55 0.0 0.0 0.00 0.00 0.00 71 1010.1
20260505051607 55 0.0 0.0 0.00 0.00 0.00 71 1010.1
20260505051536 55 0.0 0.0 0.00 0.00 0.00 71 1010.1
20260505051504 55 0.0 0.0 0.00 0.00 0.00 71 1010.1
20260505051433 55 0.0 0.0 0.00 0.00 0.00 71 1010.1
20260505051401 55 0.0 0.0 0.00 0.00 0.00 71 1010.1
20260505051330 55 0.0 0.0 0.00 0.00 0.00 71 1010.1
20260505051258 55 0.0 0.0 0.00 0.00 0.00 71 1010.1
20260505051227 55 0.0 0.0 0.00 0.00 0.00 71 1010.0
20260505051155 55 0.0 0.0 0.00 0.00 0.00 71 1010.0
20260505051124 55 0.0 0.0 0.00 0.00 0.00 71 1010.0
20260505051052 55 0.0 0.0 0.00 0.00 0.00 71 1010.0
20260505051021 55 0.0 0.0 0.00 0.00 0.00 71 1010.1
20260505050949 55 0.0 0.0 0.00 0.00 0.00 71 1010.1
20260505050918 55 0.0 0.0 0.00 0.00 0.00 71 1010.1
20260505050846 55 0.0 0.0 0.00 0.00 0.00 71 1010.1
20260505050815 55 0.0 0.0 0.00 0.00 0.00 71 1010.1
20260505050743 55 0.0 0.0 0.00 0.00 0.00 71 1010.1
20260505050712 55 0.0 0.0 0.00 0.00 0.00 71 1010.1
20260505050640 55 0.0 0.0 0.00 0.00 0.00 71 1010.1
20260505050608 55 0.0 0.0 0.00 0.00 0.00 71 1010.1
20260505050537 55 0.0 0.0 0.00 0.00 0.00 71 1010.1
20260505050506 55 0.0 0.0 0.00 0.00 0.00 71 1010.1
20260505050434 55 0.0 0.0 0.00 0.00 0.00 71 1010.1
20260505050403 55 0.0 0.0 0.00 0.00 0.00 71 1010.1
20260505050331 54 0.0 0.0 0.00 0.00 0.00 71 1010.2
20260505050259 54 0.0 0.0 0.00 0.00 0.00 71 1010.1
20260505050228 54 0.0 0.0 0.00 0.00 0.00 71 1010.1
20260505050157 54 0.0 0.0 0.00 0.00 0.00 71 1010.2
20260505050124 54 0.0 0.0 0.00 0.00 0.00 71 1010.1
20260505041746 53 0.0 0.0 0.00 0.00 0.00 69 1010.2
20260505041715 53 0.0 0.0 0.00 0.00 0.00 69 1010.2
20260505041643 53 0.0 0.0 0.00 0.00 0.00 69 1010.2
20260505041612 53 0.0 0.0 0.00 0.00 0.00 69 1010.2
20260505041540 53 0.0 0.0 0.00 0.00 0.00 69 1010.2
20260505041509 53 0.0 0.0 0.00 0.00 0.00 69 1010.2
20260505041437 53 0.0 0.0 0.00 0.00 0.00 69 1010.2
20260505041406 53 0.0 0.0 0.00 0.00 0.00 69 1010.2
20260505041334 53 0.0 0.0 0.00 0.00 0.00 69 1010.2
20260505041303 53 0.0 0.0 0.00 0.00 0.00 69 1010.2
20260505041231 53 0.0 0.0 0.00 0.00 0.00 69 1010.2
20260505041200 53 0.0 0.0 0.00 0.00 0.00 69 1010.2
20260505041128 53 0.0 0.0 0.00 0.00 0.00 69 1010.2
20260505041057 53 0.0 0.0 0.00 0.00 0.00 69 1010.2
20260505041024 53 0.0 0.0 0.00 0.00 0.00 69 1010.1
20260505040953 53 0.0 0.0 0.00 0.00 0.00 69 1010.1
20260505040921 53 0.0 0.0 0.00 0.00 0.00 69 1010.2
20260505040850 53 0.0 0.0 0.00 0.00 0.00 69 1010.1
20260505040818 53 0.0 0.0 0.00 0.00 0.00 69 1010.2
20260505040747 53 0.0 0.0 0.00 0.00 0.00 69 1010.2
20260505040715 53 0.0 0.0 0.00 0.00 0.00 69 1010.2
20260505040644 53 0.0 0.0 0.00 0.00 0.00 69 1010.2
20260505040612 53 0.0 0.0 0.00 0.00 0.00 69 1010.2
20260505040541 53 0.0 0.0 0.00 0.00 0.00 69 1010.2
20260505040509 53 0.0 0.0 0.00 0.00 0.00 69 1010.2
20260505040437 53 0.0 0.0 0.00 0.00 0.00 69 1010.3
20260505040406 53 0.0 0.0 0.00 0.00 0.00 69 1010.2
20260505040335 53 0.0 0.0 0.00 0.00 0.00 69 1010.2
20260505040303 53 0.0 0.0 0.00 0.00 0.00 69 1010.2
20260505040232 53 0.0 0.0 0.00 0.00 0.00 69 1010.2
20260505040200 53 0.0 0.0 0.00 0.00 0.00 69 1010.2
20260505040129 53 0.0 0.0 0.00 0.00 0.00 69 1010.2
20260505040057 53 0.0 0.0 0.00 0.00 0.00 69 1010.2
20260505040026 53 0.0 0.0 0.00 0.00 0.00 69 1010.2
20260505035954 53 0.0 0.0 0.00 0.00 0.00 69 1010.2
20260505035923 53 0.0 0.0 0.00 0.00 0.00 69 1010.2
20260505035851 53 0.0 0.0 0.00 0.00 0.00 69 1010.2
20260505035820 53 0.0 0.0 0.00 0.00 0.00 69 1010.2
20260505035748 53 0.0 0.0 0.00 0.00 0.00 69 1010.2
20260505035716 53 0.0 0.0 0.00 0.00 0.00 69 1010.2
20260505035645 53 0.0 0.0 0.00 0.00 0.00 69 1010.2
20260505035613 53 0.0 0.0 0.00 0.00 0.00 69 1010.2
20260505035541 53 0.0 0.0 0.00 0.00 0.00 69 1010.2
20260505035510 53 0.0 0.0 0.00 0.00 0.00 69 1010.2
20260505035438 53 0.0 0.0 0.00 0.00 0.00 69 1010.3
20260505035407 53 0.0 0.0 0.00 0.00 0.00 68 1010.2
20260505035335 53 0.0 0.0 0.00 0.00 0.00 68 1010.2
20260505035304 53 0.0 0.0 0.00 0.00 0.00 68 1010.2
20260505035232 53 0.0 0.0 0.00 0.00 0.00 68 1010.2
20260505035200 53 0.0 0.0 0.00 0.00 0.00 68 1010.2
20260505035129 53 0.0 0.0 0.00 0.00 0.00 68 1010.2
20260505035057 53 0.0 0.0 0.00 0.00 0.00 68 1010.2
20260505035025 53 0.0 0.0 0.00 0.00 0.00 68 1010.2
20260505034954 53 0.0 0.0 0.00 0.00 0.00 68 1010.2
20260505034922 53 0.0 0.0 0.00 0.00 0.00 68 1010.2
20260505034851 53 0.0 0.0 0.00 0.00 0.00 68 1010.3
20260505034819 53 0.0 0.0 0.00 0.00 0.00 68 1010.2
20260505034748 53 0.0 0.0 0.00 0.00 0.00 68 1010.3
20260505034716 53 0.0 0.0 0.00 0.00 0.00 68 1010.3
20260505034645 53 0.0 0.0 0.00 0.00 0.00 68 1010.3
20260505034613 53 0.0 0.0 0.00 0.00 0.00 68 1010.3
20260505034542 53 0.0 0.0 0.00 0.00 0.00 68 1010.3
20260505034510 53 0.0 0.0 0.00 0.00 0.00 68 1010.3
20260505034439 53 0.0 0.0 0.00 0.00 0.00 68 1010.3
20260505034407 53 0.0 0.0 0.00 0.00 0.00 68 1010.3
20260505034336 53 0.0 0.0 0.00 0.00 0.00 68 1010.2
20260505034304 53 0.0 0.0 0.00 0.00 0.00 68 1010.3
20260505034233 53 0.0 0.0 0.00 0.00 0.00 68 1010.3
20260505034201 53 0.0 0.0 0.00 0.00 0.00 68 1010.2
20260505034130 53 0.0 0.0 0.00 0.00 0.00 68 1010.2
20260505034058 53 0.0 0.0 0.00 0.00 0.00 68 1010.2
20260505034027 53 0.0 0.0 0.00 0.00 0.00 68 1010.2
20260505033955 53 0.0 0.0 0.00 0.00 0.00 68 1010.2
20260505033923 53 0.0 0.0 0.00 0.00 0.00 68 1010.2
20260505033852 53 0.0 0.0 0.00 0.00 0.00 68 1010.2
20260505033820 53 0.0 0.0 0.00 0.00 0.00 68 1010.2
20260505033749 53 0.0 0.0 0.00 0.00 0.00 68 1010.2
20260505033717 53 0.0 0.0 0.00 0.00 0.00 68 1010.2
20260505033646 53 0.0 0.0 0.00 0.00 0.00 68 1010.2
20260505033614 53 0.0 0.0 0.00 0.00 0.00 68 1010.2
20260505033543 53 0.0 0.0 0.00 0.00 0.00 68 1010.2
20260505033511 53 0.0 0.0 0.00 0.00 0.00 68 1010.2
20260505033440 53 0.0 0.0 0.00 0.00 0.00 67 1010.3
20260505033408 53 0.0 0.0 0.00 0.00 0.00 67 1010.2
20260505033336 53 0.0 0.0 0.00 0.00 0.00 67 1010.2
20260505033305 53 0.0 0.0 0.00 0.00 0.00 67 1010.3
20260505033234 53 0.0 0.0 0.00 0.00 0.00 67 1010.2
20260505033202 53 0.0 0.0 0.00 0.00 0.00 67 1010.2
20260505033130 53 0.0 0.0 0.00 0.00 0.00 67 1010.2
20260505033059 53 0.0 0.0 0.00 0.00 0.00 67 1010.2
20260505033027 53 0.0 0.0 0.00 0.00 0.00 67 1010.2
20260505032956 53 0.0 0.0 0.00 0.00 0.00 67 1010.2
20260505032924 53 0.0 0.0 0.00 0.00 0.00 67 1010.3
20260505032853 53 0.0 0.0 0.00 0.00 0.00 67 1010.2
20260505032821 53 0.0 0.0 0.00 0.00 0.00 67 1010.3
20260505032750 53 0.0 0.0 0.00 0.00 0.00 67 1010.3
20260505032718 53 0.0 0.0 0.00 0.00 0.00 67 1010.3
20260505032647 53 0.0 0.0 0.00 0.00 0.00 67 1010.3
20260505032615 53 0.0 0.0 0.00 0.00 0.00 67 1010.3
20260505032544 53 0.0 0.0 0.00 0.00 0.00 67 1010.3
20260505032512 53 0.0 0.0 0.00 0.00 0.00 67 1010.3
20260505032441 53 0.0 0.0 0.00 0.00 0.00 66 1010.3
20260505032409 53 0.0 0.0 0.00 0.00 0.00 66 1010.3
20260505032338 53 0.0 0.0 0.00 0.00 0.00 66 1010.3
20260505032306 53 0.0 0.0 0.00 0.00 0.00 66 1010.4
20260505032235 53 0.0 0.0 0.00 0.00 0.00 66 1010.4
20260505032203 53 0.0 0.0 0.00 0.00 0.00 66 1010.4
20260505032132 53 0.0 0.0 0.00 0.00 0.00 66 1010.5
20260505032100 53 0.0 0.0 0.00 0.00 0.00 66 1010.4
20260505032029 54 0.0 0.0 0.00 0.00 0.00 66 1010.4
20260505031957 54 0.0 0.0 0.00 0.00 0.00 66 1010.4
20260505031926 54 0.0 0.0 0.00 0.00 0.00 66 1010.4
20260505031854 54 0.0 0.0 0.00 0.00 0.00 66 1010.4
20260505031823 54 0.0 0.0 0.00 0.00 0.00 66 1010.4
20260505031751 54 0.0 0.0 0.00 0.00 0.00 66 1010.4
20260505031720 54 0.0 0.0 0.00 0.00 0.00 66 1010.4
20260505031648 54 0.0 0.0 0.00 0.00 0.00 66 1010.4
20260505031617 54 0.0 0.0 0.00 0.00 0.00 66 1010.4
20260505031545 54 0.0 0.0 0.00 0.00 0.00 66 1010.5
20260505031514 54 0.0 0.0 0.00 0.00 0.00 66 1010.5
20260505031442 54 0.0 0.0 0.00 0.00 0.00 66 1010.5
20260505031411 54 0.0 0.0 0.00 0.00 0.00 66 1010.5
20260505031339 54 0.0 0.0 0.00 0.00 0.00 66 1010.5
20260505031308 54 0.0 0.0 0.00 0.00 0.00 66 1010.5
20260505031236 54 0.0 0.0 0.00 0.00 0.00 66 1010.5
20260505031205 54 0.0 0.0 0.00 0.00 0.00 66 1010.5
20260505031133 54 0.0 0.0 0.00 0.00 0.00 66 1010.5
20260505031102 54 0.0 0.0 0.00 0.00 0.00 66 1010.5
20260505031030 54 0.0 0.0 0.00 0.00 0.00 66 1010.5
20260505030959 54 0.0 0.0 0.00 0.00 0.00 65 1010.5
20260505030856 54 0.0 0.0 0.00 0.00 0.00 65 1010.5
20260505030824 54 0.0 0.0 0.00 0.00 0.00 65 1010.5
20260505030753 54 0.0 0.0 0.00 0.00 0.00 65 1010.5
20260505030721 54 0.0 0.0 0.00 0.00 0.00 65 1010.5
20260505030650 54 0.0 0.0 0.00 0.00 0.00 65 1010.5
20260505030618 54 0.0 0.0 0.00 0.00 0.00 65 1010.5
20260505030547 54 0.0 0.0 0.00 0.00 0.00 65 1010.5
20260505030444 54 0.0 0.0 0.00 0.00 0.00 65 1010.5
20260505030412 54 0.0 0.0 0.00 0.00 0.00 65 1010.5
20260505030341 54 0.0 0.0 0.00 0.00 0.00 65 1010.5
20260505030310 54 0.0 0.0 0.00 0.00 0.00 65 1010.5
20260505030238 54 0.0 0.0 0.00 0.00 0.00 65 1010.6
20260505030206 54 0.0 0.0 0.00 0.00 0.00 65 1010.6
20260505030134 54 0.0 0.0 0.00 0.00 0.00 65 1010.5
20260505030103 54 0.0 0.0 0.00 0.00 0.00 65 1010.6
20260505030032 54 0.0 0.0 0.00 0.00 0.00 65 1010.6
20260505030000 54 0.0 0.0 0.00 0.00 0.00 65 1010.6
20260505025928 54 0.0 0.0 0.00 0.00 0.00 65 1010.6
20260505025857 55 0.0 0.0 0.00 0.00 0.00 65 1010.6
20260505025825 55 0.0 0.0 0.00 0.00 0.00 65 1010.6
20260505025754 55 0.0 0.0 0.00 0.00 0.00 65 1010.6
20260505025722 55 0.0 0.0 0.00 0.00 0.00 65 1010.6
20260505025650 55 0.0 0.0 0.00 0.00 0.00 65 1010.6
20260505025618 55 0.0 0.0 0.00 0.00 0.00 64 1010.6
20260505025547 55 0.0 0.0 0.00 0.00 0.00 64 1010.6
20260505025515 55 0.0 0.0 0.00 0.00 0.00 64 1010.6
20260505025444 55 0.0 0.0 0.00 0.00 0.00 64 1010.6
20260505025412 55 0.0 0.0 0.00 0.00 0.00 64 1010.6
20260505025341 55 0.0 0.0 0.00 0.00 0.00 64 1010.6
20260505025309 55 0.0 0.0 0.00 0.00 0.00 64 1010.6
20260505025238 55 0.0 0.0 0.00 0.00 0.00 64 1010.6
20260505025206 55 0.0 0.0 0.00 0.00 0.00 64 1010.6
20260505025135 55 0.0 0.0 0.00 0.00 0.00 64 1010.6
20260505025104 55 0.0 0.0 0.00 0.00 0.00 64 1010.6
20260505025032 55 0.0 0.0 0.00 0.00 0.00 64 1010.6
20260505025000 55 0.0 0.0 0.00 0.00 0.00 64 1010.6
20260505024928 55 0.0 0.0 0.00 0.00 0.00 64 1010.6
20260505024826 55 0.0 0.0 0.00 0.00 0.00 64 1010.6
20260505024754 55 0.0 0.0 0.00 0.00 0.00 64 1010.6
20260505024723 55 0.0 0.0 0.00 0.00 0.00 64 1010.6
20260505024651 55 0.0 0.0 0.00 0.00 0.00 64 1010.6
20260505024620 55 0.0 0.0 0.00 0.00 0.00 64 1010.6
20260505024548 55 0.0 0.0 0.00 0.00 0.00 64 1010.6
20260505024517 55 0.0 0.0 0.00 0.00 0.00 64 1010.6
20260505024445 55 0.0 0.0 0.00 0.00 0.00 64 1010.6
20260505024342 55 0.0 0.0 0.00 0.00 0.00 64 1010.6
20260505024311 55 0.0 0.0 0.00 0.00 0.00 64 1010.6
20260505024239 55 0.0 0.0 0.00 0.00 0.00 64 1010.6
20260505024208 55 0.0 0.0 0.00 0.00 0.00 64 1010.6
20260505024136 55 0.0 0.0 0.00 0.00 0.00 64 1010.6
20260505024104 56 0.0 0.0 0.00 0.00 0.00 64 1010.6
20260505024033 56 0.0 0.0 0.00 0.00 0.00 63 1010.6
20260505024001 56 0.0 0.0 0.00 0.00 0.00 63 1010.6
20260505023930 56 0.0 0.0 0.00 0.00 0.00 63 1010.6
20260505023858 56 0.0 0.0 0.00 0.00 0.00 63 1010.6
20260505023826 56 0.0 0.0 0.00 0.00 0.00 63 1010.6
20260505023754 56 0.0 0.0 0.00 0.00 0.00 63 1010.6
20260505023723 56 0.0 0.0 0.00 0.00 0.00 63 1010.7
20260505023651 56 0.0 0.0 0.00 0.00 0.00 63 1010.6
20260505023619 56 0.0 0.0 0.00 0.00 0.00 63 1010.7
20260505023548 56 0.0 0.0 0.00 0.00 0.00 63 1010.6
20260505023516 56 0.0 0.0 0.00 0.00 0.00 63 1010.7
20260505023445 56 0.0 0.0 0.00 0.00 0.00 63 1010.7
20260505023414 56 0.0 0.0 0.00 0.00 0.00 63 1010.6
20260505023342 56 0.0 0.0 0.00 0.00 0.00 63 1010.7
20260505023310 56 0.0 0.0 0.00 0.00 0.00 63 1010.7
20260505023239 56 0.0 0.0 0.00 0.00 0.00 63 1010.7
20260505023207 56 0.0 0.0 0.00 0.00 0.00 63 1010.7
20260505023136 56 0.0 0.0 0.00 0.00 0.00 63 1010.8
20260505023104 56 0.0 0.0 0.00 0.00 0.00 63 1010.8
20260505023033 56 0.0 0.0 0.00 0.00 0.00 63 1010.8
20260505023001 56 0.0 0.0 0.00 0.00 0.00 63 1010.8
20260505022930 56 0.0 0.0 0.00 0.00 0.00 63 1010.8
20260505022858 56 0.0 0.0 0.00 0.00 0.00 63 1010.7
20260505022827 56 0.0 0.0 0.00 0.00 0.00 63 1010.7
20260505022755 56 0.0 0.0 0.00 0.00 0.00 63 1010.7
20260505022724 56 0.0 0.0 0.00 0.00 0.00 63 1010.7
20260505022621 56 0.0 0.0 0.00 0.00 0.00 63 1010.8
20260505022549 56 0.0 0.0 0.00 0.00 0.00 63 1010.8
20260505022518 56 0.0 0.0 0.00 0.00 0.00 63 1010.7
20260505022446 56 0.0 0.0 0.00 0.00 0.00 63 1010.7
20260505022415 56 0.0 0.0 0.00 0.00 0.00 63 1010.7
20260505022343 56 0.0 0.0 0.00 0.00 0.00 63 1010.7
20260505022312 56 0.0 0.0 0.00 0.00 0.00 63 1010.7
20260505022240 57 0.0 0.0 0.00 0.00 0.00 63 1010.7
20260505022209 57 0.0 0.0 0.00 0.00 0.00 63 1010.7
20260505022137 57 0.0 0.0 0.00 0.00 0.00 63 1010.7
20260505022106 57 0.0 0.0 0.00 0.00 0.00 63 1010.7
20260505022034 57 0.0 0.0 0.00 0.00 0.00 63 1010.7
20260505022003 57 0.0 0.0 0.00 0.00 0.00 63 1010.7
20260505021931 57 0.0 0.0 0.00 0.00 0.00 63 1010.7
20260505021900 57 0.0 0.0 0.00 0.00 0.00 63 1010.7
20260505021828 57 0.0 0.0 0.00 0.00 0.00 63 1010.7
20260505021757 57 0.0 0.0 0.00 0.00 0.00 63 1010.7
20260505021725 57 0.0 0.0 0.00 0.00 0.00 63 1010.7
20260505021654 57 0.0 0.0 0.00 0.00 0.00 63 1010.8
20260505021622 57 0.0 0.0 0.00 0.00 0.00 63 1010.8
20260505021551 57 0.0 0.0 0.00 0.00 0.00 63 1010.8
20260505021519 57 0.0 0.0 0.00 0.00 0.00 63 1010.8
20260505021448 57 0.0 0.0 0.00 0.00 0.00 63 1010.8
20260505021416 57 0.0 0.0 0.00 0.00 0.00 63 1010.8
20260505021345 57 0.0 0.0 0.00 0.00 0.00 63 1010.8
20260505021313 57 0.0 0.0 0.00 0.00 0.00 62 1010.9
20260505021241 57 0.0 0.0 0.00 0.00 0.00 62 1010.9
20260505021210 57 0.0 0.0 0.00 0.00 0.00 62 1010.9
20260505021138 57 0.0 0.0 0.00 0.00 0.00 62 1010.9
20260505021107 57 0.0 0.0 0.00 0.00 0.00 62 1010.9
20260505021035 57 0.0 0.0 0.00 0.00 0.00 62 1010.9
20260505021003 57 0.0 0.0 0.00 0.00 0.00 62 1010.9
20260505020932 57 0.0 0.0 0.00 0.00 0.00 62 1010.8
20260505020900 57 0.0 0.0 0.00 0.00 0.00 62 1010.9
20260505020829 57 0.0 0.0 0.00 0.00 0.00 62 1010.9
20260505020757 57 0.0 0.0 0.00 0.00 0.00 62 1010.9
20260505020726 57 0.0 0.0 0.00 0.00 0.00 62 1010.9
20260505020654 57 0.0 0.0 0.00 0.00 0.00 62 1010.9
20260505020622 57 0.0 0.0 0.00 0.00 0.00 62 1010.9
20260505020551 57 0.0 0.0 0.00 0.00 0.00 62 1010.9
20260505020519 57 0.0 0.0 0.00 0.00 0.00 62 1010.9
20260505020448 57 0.0 0.0 0.00 0.00 0.00 62 1010.9
20260505020416 57 0.0 0.0 0.00 0.00 0.00 62 1010.9
20260505020314 57 0.0 0.0 0.00 0.00 0.00 62 1010.9
20260505020241 57 0.0 0.0 0.00 0.00 0.00 62 1010.9
20260505020210 57 0.0 0.0 0.00 0.00 0.00 62 1010.9
20260505020138 57 0.0 0.0 0.00 0.00 0.00 62 1010.9
20260505020107 57 0.0 0.0 0.00 0.00 0.00 62 1010.9
20260505020035 57 0.0 0.0 0.00 0.00 0.00 62 1011.0
20260505020004 57 0.0 0.0 0.00 0.00 0.00 62 1010.9
20260505015932 57 0.0 0.0 0.00 0.00 0.00 62 1011.0
20260505015901 57 0.0 0.0 0.00 0.00 0.00 62 1010.9
20260505015829 57 0.0 0.0 0.00 0.00 0.00 62 1011.0
20260505015758 57 0.0 0.0 0.00 0.00 0.00 62 1011.0
20260505015726 57 0.0 0.0 0.00 0.00 0.00 62 1010.9
20260505015655 58 0.0 0.0 0.00 0.00 0.00 62 1011.0
20260505015623 58 0.0 0.0 0.00 0.00 0.00 62 1010.9
20260505015552 58 0.0 0.0 0.00 0.00 0.00 62 1010.9
20260505015520 58 0.0 0.0 0.00 0.00 0.00 62 1010.9
20260505015449 58 0.0 0.0 0.00 0.00 0.00 62 1010.9
20260505015417 58 0.0 0.0 0.00 0.00 0.00 62 1010.9
20260505015346 58 0.0 0.0 0.00 0.00 0.00 62 1010.9
20260505015314 58 0.0 0.0 0.00 0.00 0.00 62 1010.9
20260505015242 58 0.0 0.0 0.00 0.00 0.00 62 1010.9
20260505015210 58 0.0 0.0 0.00 0.00 0.00 62 1010.9
20260505015138 58 0.0 0.0 0.00 0.00 0.00 62 1010.9
20260505015107 58 0.0 0.0 0.00 0.00 0.00 62 1010.9
20260505015036 58 0.0 0.0 0.00 0.00 0.00 62 1010.9
20260505015004 58 0.0 0.0 0.00 0.00 0.00 62 1010.9
20260505014933 58 0.0 0.0 0.00 0.00 0.00 62 1010.9
20260505014901 58 0.0 0.0 0.00 0.00 0.00 62 1010.9
20260505014830 58 0.0 0.0 0.00 0.00 0.00 62 1010.9
20260505014758 58 0.0 0.0 0.00 0.00 0.00 62 1010.9
20260505014727 58 0.0 0.0 0.00 0.00 0.00 62 1010.9
20260505014655 58 0.0 0.0 0.00 0.00 0.00 62 1010.9
20260505014624 58 0.0 0.0 0.00 0.00 0.00 62 1010.9
20260505014553 58 0.0 0.0 0.00 0.00 0.00 62 1011.0
20260505014521 58 0.0 0.0 0.00 0.00 0.00 62 1011.0
20260505014449 58 0.0 0.0 0.00 0.00 0.00 62 1010.9
20260505014418 58 0.0 0.0 0.00 0.00 0.00 62 1010.9
20260505014346 58 0.0 0.0 0.00 0.00 0.00 62 1011.0
20260505014315 58 0.0 0.0 0.00 0.00 0.00 62 1011.0
20260505014243 58 0.0 0.0 0.00 0.00 0.00 62 1010.9
20260505014211 58 0.0 0.0 0.00 0.00 0.00 62 1010.9
20260505014139 58 0.0 0.0 0.00 0.00 0.00 62 1011.0
20260505014108 58 0.0 0.0 0.00 0.00 0.00 61 1011.0
20260505014036 58 0.0 0.0 0.00 0.00 0.00 61 1010.9
20260505014004 58 0.0 0.0 0.00 0.00 0.00 61 1011.0
20260505013933 58 0.0 0.0 0.00 0.00 0.00 61 1010.9
20260505013901 58 0.0 0.0 0.00 0.00 0.00 61 1010.9
20260505013830 58 0.0 0.0 0.00 0.00 0.00 61 1010.9
20260505013758 58 0.0 0.0 0.00 0.00 0.00 61 1010.9
20260505013727 58 0.0 0.0 0.00 0.00 0.00 61 1010.9
20260505013655 58 0.0 0.0 0.00 0.00 0.00 62 1010.9
20260505013624 58 0.0 0.0 0.00 0.00 0.00 61 1010.9
20260505013552 58 0.0 0.0 0.00 0.00 0.00 61 1010.9
20260505013521 58 0.0 0.0 0.00 0.00 0.00 62 1010.9
20260505013449 58 0.0 0.0 0.00 0.00 0.00 62 1011.0
20260505013417 58 0.0 0.0 0.00 0.00 0.00 61 1010.9
20260505013346 58 0.0 0.0 0.00 0.00 0.00 61 1011.0
20260505013315 58 0.0 0.0 0.00 0.00 0.00 61 1011.0
20260505013243 58 0.0 0.0 0.00 0.00 0.00 61 1010.9
20260505013139 58 0.0 0.0 0.00 0.00 0.00 61 1011.0
20260505013108 58 0.0 0.0 0.00 0.00 0.00 61 1011.0
20260505013036 58 0.0 0.0 0.00 0.00 0.00 61 1011.0
20260505013004 58 0.0 0.0 0.00 0.00 0.00 61 1011.0
20260505012933 58 0.0 0.0 0.00 0.00 0.00 61 1011.0
20260505012901 58 0.0 0.0 0.00 0.00 0.00 61 1011.0
20260505012830 58 0.0 0.0 0.00 0.00 0.00 61 1011.0
20260505012758 58 0.0 0.0 0.00 0.00 0.00 61 1011.0
20260505012727 59 0.0 0.0 0.00 0.00 0.00 61 1011.0
20260505012655 58 0.0 0.0 0.00 0.00 0.00 61 1011.0
20260505012624 59 0.0 0.0 0.00 0.00 0.00 61 1011.0
20260505012552 58 0.0 0.0 0.00 0.00 0.00 61 1011.0
20260505012521 59 0.0 0.0 0.00 0.00 0.00 61 1011.0
20260505012449 59 0.0 0.0 0.00 0.00 0.00 61 1011.0
20260505012418 58 0.0 0.0 0.00 0.00 0.00 61 1011.0
20260505012346 58 0.0 0.0 0.00 0.00 0.00 61 1011.0
20260505012315 58 0.0 0.0 0.00 0.00 0.00 61 1011.1
20260505012243 58 0.0 0.0 0.00 0.00 0.00 61 1011.0
20260505012212 58 0.0 0.0 0.00 0.00 0.00 61 1011.1
20260505012139 58 0.0 0.0 0.00 0.00 0.00 61 1011.0
20260505012108 58 0.0 0.0 0.00 0.00 0.00 61 1011.0
20260505012036 58 0.0 0.0 0.00 0.00 0.00 61 1011.0
20260505012005 58 0.0 0.0 0.00 0.00 0.00 61 1011.1
20260505011933 58 0.0 0.0 0.00 0.00 0.00 61 1011.0
20260505011902 58 0.0 0.0 0.00 0.00 0.00 61 1011.1
20260505011830 58 0.0 0.0 0.00 0.00 0.00 61 1011.1
20260505011759 58 0.0 0.0 0.00 0.00 0.00 61 1011.1
20260505011727 58 0.0 0.0 0.00 0.00 0.00 61 1011.1
20260505011656 58 0.0 0.0 0.00 0.00 0.00 61 1011.1
20260505011624 58 0.0 0.0 0.00 0.00 0.00 61 1011.1
20260505011552 58 0.0 0.0 0.00 0.00 0.00 61 1011.1
20260505011521 58 0.0 0.0 0.00 0.00 0.00 61 1011.1
20260505011449 58 0.0 0.0 0.00 0.00 0.00 61 1011.1
20260505011418 58 0.0 0.0 0.00 0.00 0.00 61 1011.1
20260505011346 58 0.0 0.0 0.00 0.00 0.00 61 1011.1
20260505011314 58 0.0 0.0 0.00 0.00 0.00 60 1011.1
20260505011243 58 0.0 0.0 0.00 0.00 0.00 60 1011.1
20260505011211 58 0.0 0.0 0.00 0.00 0.00 60 1011.1
20260505011139 58 0.0 0.0 0.00 0.00 0.00 60 1011.1
20260505011108 58 0.0 0.0 0.00 0.00 0.00 60 1011.1
20260505011036 58 0.0 0.0 0.00 0.00 0.00 60 1011.1
20260505011005 58 0.0 0.0 0.00 0.00 0.00 60 1011.1
20260505010933 58 0.0 0.0 0.00 0.00 0.00 60 1011.1
20260505010902 58 0.0 0.0 0.00 0.00 0.00 60 1011.1
20260505010830 58 0.0 0.0 0.00 0.00 0.00 60 1011.1
20260505010759 58 0.0 0.0 0.00 0.00 0.00 60 1011.1
20260505010727 58 0.0 0.0 0.00 0.00 0.00 60 1011.1
20260505010656 58 0.0 0.0 0.00 0.00 0.00 60 1011.1
20260505010624 58 0.0 0.0 0.00 0.00 0.00 60 1011.1
20260505010552 58 0.0 0.0 0.00 0.00 0.00 60 1011.1
20260505010521 58 0.0 0.0 0.00 0.00 0.00 60 1011.1
20260505010449 58 0.0 0.0 0.00 0.00 0.00 60 1011.1
20260505010418 58 0.0 0.0 0.00 0.00 0.00 60 1011.1
20260505010346 58 0.0 0.0 0.00 0.00 0.00 60 1011.1
20260505010314 58 0.0 0.0 0.00 0.00 0.00 60 1011.1
20260505010243 58 0.0 0.0 0.00 0.00 0.00 60 1011.2
20260505010211 58 0.0 0.0 0.00 0.00 0.00 60 1011.1
20260505010140 58 0.0 0.0 0.00 0.00 0.00 60 1011.1
20260505010108 58 0.0 0.0 0.00 0.00 0.00 60 1011.1
20260505010037 58 0.0 0.0 0.00 0.00 0.00 60 1011.2
20260505010005 58 0.0 0.0 0.00 0.00 0.00 60 1011.1
20260505005934 58 0.0 0.0 0.00 0.00 0.00 60 1011.2
20260505005902 58 0.0 0.0 0.00 0.00 0.00 60 1011.2
20260505005831 58 0.0 0.0 0.00 0.00 0.00 60 1011.2
20260505005800 58 0.0 0.0 0.00 0.00 0.00 60 1011.2
20260505005728 58 0.0 0.0 0.00 0.00 0.00 60 1011.2
20260505005656 58 0.0 0.0 0.00 0.00 0.00 60 1011.1
20260505005625 58 0.0 0.0 0.00 0.00 0.00 60 1011.1
20260505005553 58 0.0 0.0 0.00 0.00 0.00 60 1011.1
20260505005521 58 0.0 0.0 0.00 0.00 0.00 60 1011.1
20260505005450 58 0.0 0.0 0.00 0.00 0.00 60 1011.2
20260505005418 58 0.0 0.0 0.00 0.00 0.00 60 1011.1
20260505005316 58 0.0 0.0 0.00 0.00 0.00 60 1011.1
20260505005244 58 0.0 0.0 0.00 0.00 0.00 60 1011.1
20260505005213 58 0.0 0.0 0.00 0.00 0.00 60 1011.1
20260505005140 59 0.0 0.0 0.00 0.00 0.00 60 1011.1
20260505005108 59 0.0 0.0 0.00 0.00 0.00 60 1011.1
20260505005037 59 0.0 0.0 0.00 0.00 0.00 60 1011.1
20260505004934 59 0.0 0.0 0.00 0.00 0.00 60 1011.1
20260505004902 59 0.0 0.0 0.00 0.00 0.00 60 1011.1
20260505004831 59 0.0 0.0 0.00 0.00 0.00 60 1011.1
20260505004759 59 0.0 0.0 0.00 0.00 0.00 60 1011.1
20260505004727 59 0.0 0.0 0.00 0.00 0.00 60 1011.1
20260505004656 59 0.0 0.0 0.00 0.00 0.00 60 1011.2
20260505004624 59 0.0 0.0 0.00 0.00 0.00 60 1011.2
20260505004553 59 0.0 0.0 0.00 0.00 0.00 60 1011.2
20260505004521 59 0.0 0.0 0.00 0.00 0.00 60 1011.2
20260505004450 59 0.0 0.0 0.00 0.00 0.00 60 1011.2
20260505004418 59 0.0 0.0 0.00 0.00 0.00 60 1011.2
20260505004347 59 0.0 0.0 0.00 0.00 0.00 60 1011.2
20260505004315 59 0.0 0.0 0.00 0.00 0.00 60 1011.2
20260505004244 59 0.0 0.0 0.00 0.00 0.00 60 1011.3
20260505004212 59 0.0 0.0 0.00 0.00 0.00 60 1011.3
20260505004140 59 0.0 0.0 0.00 0.00 0.00 60 1011.3
20260505004109 59 0.0 0.0 0.00 0.00 0.00 60 1011.3
20260505004037 59 0.0 0.0 0.00 0.00 0.00 60 1011.3
20260505004006 59 0.0 0.0 0.00 0.00 0.00 60 1011.3
20260505003934 59 0.0 0.0 0.00 0.00 0.00 60 1011.3
20260505003902 59 0.0 0.0 0.00 0.00 0.00 60 1011.3
20260505003831 59 0.0 0.0 0.00 0.00 0.00 60 1011.3
20260505003759 59 0.0 0.0 0.00 0.00 0.00 60 1011.3
20260505003728 59 0.0 0.0 0.00 0.00 0.00 60 1011.3
20260505003656 59 0.0 0.0 0.00 0.00 0.00 60 1011.3
20260505003625 59 0.0 0.0 0.00 0.00 0.00 60 1011.4
20260505003553 59 0.0 0.0 0.00 0.00 0.00 60 1011.3
20260505003522 59 0.0 0.0 0.00 0.00 0.00 60 1011.4
20260505003450 59 0.0 0.0 0.00 0.00 0.00 60 1011.4
20260505003419 59 0.0 0.0 0.00 0.00 0.00 60 1011.3
20260505003347 59 0.0 0.0 0.00 0.00 0.00 60 1011.3
20260505003316 59 0.0 0.0 0.00 0.00 0.00 60 1011.4
20260505003244 59 0.0 0.0 0.00 0.00 0.00 60 1011.4
20260505003213 59 0.0 0.0 0.00 0.00 0.00 60 1011.4
20260505003141 59 0.0 0.0 0.00 0.00 0.00 60 1011.4
20260505003109 59 0.0 0.0 0.00 0.00 0.00 60 1011.4
20260505003037 59 0.0 0.0 0.00 0.00 0.00 60 1011.5
20260505003005 59 0.0 0.0 0.00 0.00 0.00 60 1011.5
20260505002934 59 0.0 0.0 0.00 0.00 0.00 60 1011.4
20260505002902 59 0.0 0.0 0.00 0.00 0.00 60 1011.5
20260505002831 59 0.0 0.0 0.00 0.00 0.00 60 1011.5
20260505002759 59 0.0 0.0 0.00 0.00 0.00 60 1011.4
20260505002728 59 0.0 0.0 0.00 0.00 0.00 60 1011.5
20260505002656 59 0.0 0.0 0.00 0.00 0.00 59 1011.5
20260505002625 59 0.0 0.0 0.00 0.00 0.00 60 1011.5
20260505002553 59 0.0 0.0 0.00 0.00 0.00 60 1011.5
20260505002522 59 0.0 0.0 0.00 0.00 0.00 60 1011.5
20260505002450 59 0.0 0.0 0.00 0.00 0.00 60 1011.5
20260505002419 59 0.0 0.0 0.00 0.00 0.00 60 1011.5
20260505002347 59 0.0 0.0 0.00 0.00 0.00 60 1011.5
20260505002316 59 0.0 0.0 0.00 0.00 0.00 60 1011.5
20260505002244 59 0.0 0.0 0.00 0.00 0.00 60 1011.5
20260505002213 59 0.0 0.0 0.00 0.00 0.00 60 1011.5
20260505002141 59 0.0 0.0 0.00 0.00 0.00 60 1011.5
20260505002110 59 0.0 0.0 0.00 0.00 0.00 60 1011.5
20260505002038 59 0.0 0.0 0.00 0.00 0.00 60 1011.6
20260505002007 59 0.0 0.0 0.00 0.00 0.00 60 1011.5
20260505001935 59 0.0 0.0 0.00 0.00 0.00 60 1011.5
20260505001904 59 0.0 0.0 0.00 0.00 0.00 60 1011.5
20260505001832 59 0.0 0.0 0.00 0.00 0.00 60 1011.5
20260505001801 59 0.0 0.0 0.00 0.00 0.00 60 1011.5
20260505001729 59 0.0 0.0 0.00 0.00 0.00 60 1011.5
20260505001658 59 0.0 0.0 0.00 0.00 0.00 60 1011.5
20260505001626 59 0.0 0.0 0.00 0.00 0.00 60 1011.5
20260505001555 59 0.0 0.0 0.00 0.00 0.00 60 1011.5
20260505001523 59 0.0 0.0 0.00 0.00 0.00 60 1011.6
20260505001452 59 0.0 0.0 0.00 0.00 0.00 60 1011.6
20260505001420 59 0.0 0.0 0.00 0.00 0.00 60 1011.6
20260505001349 59 0.0 0.0 0.00 0.00 0.00 60 1011.6
20260505001317 59 0.0 0.0 0.00 0.00 0.00 60 1011.6
20260505001245 59 0.0 0.0 0.00 0.00 0.00 60 1011.6
20260505001214 59 0.0 0.0 0.00 0.00 0.00 60 1011.6
20260505001143 59 0.0 0.0 0.00 0.00 0.00 60 1011.6
20260505001111 59 0.0 0.0 0.00 0.00 0.00 60 1011.6
20260505001039 59 0.0 0.0 0.00 0.00 0.00 60 1011.6
20260505001008 59 0.0 0.0 0.00 0.00 0.00 60 1011.6
20260505000936 59 0.0 0.0 0.00 0.00 0.00 60 1011.6
20260505000905 59 0.0 0.0 0.00 0.00 0.00 60 1011.6
20260505000833 59 0.0 0.0 0.00 0.00 0.00 60 1011.7
20260505000802 59 0.0 0.0 0.00 0.00 0.00 60 1011.6
20260505000730 59 0.0 0.0 0.00 0.00 0.00 59 1011.6
20260505000658 59 0.0 0.0 0.00 0.00 0.00 59 1011.6
20260505000627 59 0.0 0.0 0.00 0.00 0.00 59 1011.6
20260505000556 59 0.0 0.0 0.00 0.00 0.00 59 1011.7
20260505000524 59 0.0 0.0 0.00 0.00 0.00 59 1011.7
20260505000452 59 0.0 0.0 0.00 0.00 0.00 59 1011.7
20260505000421 59 0.0 0.0 0.00 0.00 0.00 59 1011.7
20260505000351 59 0.0 0.0 0.00 0.00 0.00 59 1011.7
20260505000318 59 0.0 0.0 0.00 0.00 0.00 59 1011.7
20260505000246 59 0.0 0.0 0.00 0.00 0.00 59 1011.7
20260505000215 59 0.0 0.0 0.00 0.00 0.00 59 1011.7
20260505000143 59 0.0 0.0 0.00 0.00 0.00 59 1011.7
20260505000112 59 0.0 0.0 0.00 0.00 0.00 59 1011.7
20260505000040 59 0.0 0.0 0.00 0.00 0.00 59 1011.7
20260505000009 59 0.0 0.0 0.00 0.00 0.00 59 1011.7
20260504235937 59 0.0 0.0 0.00 0.00 0.00 59 1011.7
20260504235906 59 0.0 0.0 0.00 0.00 0.00 59 1011.7
20260504235834 59 0.0 0.0 0.00 0.00 0.00 59 1011.7
20260504235802 59 0.0 0.0 0.00 0.00 0.00 59 1011.7
20260504235731 59 0.0 0.0 0.00 0.00 0.00 59 1011.7
20260504235659 59 0.0 0.0 0.00 0.00 0.00 59 1011.7
20260504235628 59 0.0 0.0 0.00 0.00 0.00 59 1011.6
20260504235556 59 0.0 0.0 0.00 0.00 0.00 58 1011.7
20260504235525 59 0.0 0.0 0.00 0.00 0.00 58 1011.7
20260504235453 59 0.0 0.0 0.00 0.00 0.00 59 1011.7
20260504235422 59 0.0 0.0 0.00 0.00 0.00 58 1011.7
20260504235350 59 0.0 0.0 0.00 0.00 0.00 58 1011.7
20260504235318 59 0.0 0.0 0.00 0.00 0.00 58 1011.7
20260504235247 59 0.0 0.0 0.00 0.00 0.00 58 1011.7
20260504235215 59 0.0 0.0 0.00 0.00 0.00 58 1011.7
20260504235144 59 0.0 0.0 0.00 0.00 0.00 58 1011.7
20260504235112 59 0.0 0.0 0.00 0.00 0.00 58 1011.7
20260504235041 59 0.0 0.0 0.00 0.00 0.00 58 1011.6
20260504234937 59 0.0 0.0 0.00 0.00 0.00 58 1011.7
20260504234906 59 0.0 0.0 0.00 0.00 0.00 58 1011.6
20260504234834 59 0.0 0.0 0.00 0.00 0.00 58 1011.6
20260504234803 59 0.0 0.0 0.00 0.00 0.00 58 1011.6
20260504234731 59 0.0 0.0 0.00 0.00 0.00 58 1011.7
20260504234659 59 0.0 0.0 0.00 0.00 0.00 58 1011.6
20260504234628 59 0.0 0.0 0.00 0.00 0.00 58 1011.7
20260504234525 59 0.0 0.0 0.00 0.00 0.00 57 1011.6
20260504234453 59 0.0 0.0 0.00 0.00 0.00 57 1011.7
20260504234422 59 0.0 0.0 0.00 0.00 0.00 57 1011.7
20260504234350 59 0.0 0.0 0.00 0.00 0.00 57 1011.7
20260504234319 59 0.0 0.0 0.00 0.00 0.00 57 1011.7
20260504234247 59 0.0 0.0 0.00 0.00 0.00 57 1011.7
20260504234216 58 0.0 0.0 0.00 0.00 0.00 57 1011.7
20260504234144 58 0.0 0.0 0.00 0.00 0.00 57 1011.7
20260504234113 58 0.0 0.0 0.00 0.00 0.00 57 1011.7
20260504234041 58 0.0 0.0 0.00 0.00 0.00 57 1011.7
20260504234010 58 0.0 0.0 0.00 0.00 0.00 56 1011.7
20260504233938 58 0.0 0.0 0.00 0.00 0.00 56 1011.7
20260504233906 58 0.0 0.0 0.00 0.00 0.00 56 1011.7
20260504233835 58 0.0 0.0 0.00 0.00 0.00 56 1011.7
20260504233804 58 0.0 0.0 0.00 0.00 0.00 56 1011.7
20260504233732 58 0.0 0.0 0.00 0.00 0.00 56 1011.7
20260504233700 58 0.0 0.0 0.00 0.00 0.00 56 1011.7
20260504233629 58 0.0 0.0 0.00 0.00 0.00 56 1011.7
20260504233557 58 0.0 0.0 0.00 0.00 0.00 56 1011.7
20260504233526 58 0.0 0.0 0.00 0.00 0.00 56 1011.7
20260504233454 58 0.0 0.0 0.00 0.00 0.00 56 1011.8
20260504233423 58 0.0 0.0 0.00 0.00 0.00 56 1011.7
20260504233351 59 0.0 0.0 0.00 0.00 0.00 56 1011.7
20260504233320 59 0.0 0.0 0.00 0.00 0.00 56 1011.7
20260504233248 59 0.0 0.0 0.00 0.00 0.00 56 1011.7
20260504233217 59 0.0 0.0 0.00 0.00 0.00 56 1011.8
20260504233145 59 0.0 0.0 0.00 0.00 0.00 56 1011.7
20260504233114 59 0.0 0.0 0.00 0.00 0.00 56 1011.8
20260504233042 59 0.0 0.0 0.00 0.00 0.00 55 1011.7
20260504233011 59 0.0 0.0 0.00 0.00 0.00 55 1011.8
20260504232939 59 0.0 0.0 0.00 0.00 0.00 55 1011.7
20260504232908 59 0.0 0.0 0.00 0.00 0.00 55 1011.8
20260504232836 59 0.0 0.0 0.00 0.00 0.00 55 1011.7
20260504232805 59 0.0 0.0 0.00 0.00 0.00 55 1011.8
20260504232733 59 0.0 0.0 0.00 0.00 0.00 55 1011.8
20260504232702 59 0.0 0.0 0.00 0.00 0.00 55 1011.8
20260504232630 59 0.0 0.0 0.00 0.00 0.00 55 1011.8
20260504232559 59 0.0 0.0 0.00 0.00 0.00 55 1011.8
20260504232527 59 0.0 0.0 0.00 0.00 0.00 55 1011.8
20260504232456 59 0.0 0.0 0.00 0.00 0.00 55 1011.8
20260504232424 59 0.0 0.0 0.00 0.00 0.00 55 1011.8
20260504232353 59 0.0 0.0 0.00 0.00 0.00 55 1011.8
20260504232321 59 0.0 0.0 0.00 0.00 0.00 55 1011.8
20260504232250 59 0.0 0.0 0.00 0.00 0.00 55 1011.8
20260504232218 59 0.0 0.0 0.00 0.00 0.00 55 1011.8
20260504232147 59 0.0 0.0 0.00 0.00 0.00 55 1011.8
20260504232115 59 0.0 0.0 0.00 0.00 0.00 55 1011.8
20260504232043 59 0.0 0.0 0.00 0.00 0.00 55 1011.8
20260504232012 59 0.0 0.0 0.00 0.00 0.00 55 1011.8
20260504231940 59 0.0 0.0 0.00 0.00 0.00 55 1011.8
20260504231908 59 0.0 0.0 0.00 0.00 0.00 55 1011.8
20260504231837 59 0.0 0.0 0.00 0.00 0.00 55 1011.8
20260504231805 60 0.0 0.0 0.00 0.00 0.00 55 1011.8
20260504231734 60 0.0 0.0 0.00 0.00 0.00 54 1011.8
20260504231702 60 0.0 0.0 0.00 0.00 0.00 55 1011.8
20260504231630 60 0.0 0.0 0.00 0.00 0.00 55 1011.8
20260504231559 60 0.0 0.0 0.00 0.00 0.00 55 1011.8
20260504231527 60 0.0 0.0 0.00 0.00 0.00 55 1011.9
20260504231456 60 0.0 0.0 0.00 0.00 0.00 55 1011.9
20260504231424 60 0.0 0.0 0.00 0.00 0.00 54 1011.9
20260504231352 60 0.0 0.0 0.00 0.00 0.00 55 1011.9
20260504231321 60 0.0 0.0 0.00 0.00 0.00 55 1011.9
20260504231249 60 0.0 0.0 0.00 0.00 0.00 54 1011.9
20260504231218 60 0.0 0.0 0.00 0.00 0.00 54 1011.9
20260504231146 60 0.0 0.0 0.00 0.00 0.00 54 1011.9
20260504231115 60 0.0 0.0 0.00 0.00 0.00 54 1011.9
20260504231043 60 0.0 0.0 0.00 0.00 0.00 54 1011.9
20260504231012 60 0.0 0.0 0.00 0.00 0.00 54 1011.9
20260504230940 60 0.0 0.0 0.00 0.00 0.00 54 1011.9
20260504230909 60 0.0 0.0 0.00 0.00 0.00 54 1011.9
20260504230837 60 0.0 0.0 0.00 0.00 0.00 54 1011.8
20260504230806 60 0.0 0.0 0.00 0.00 0.00 54 1011.9
20260504230734 60 0.0 0.0 0.00 0.00 0.00 54 1011.9
20260504230703 60 0.0 0.0 0.00 0.00 0.00 54 1011.9
20260504230631 60 0.0 0.0 0.00 0.00 0.00 54 1011.9
20260504230600 60 0.0 0.0 0.00 0.00 0.00 54 1011.9
20260504230528 60 0.0 0.0 0.00 0.00 0.00 53 1011.9
20260504230457 60 0.0 0.0 0.00 0.00 0.00 53 1011.9
20260504230423 60 0.0 0.0 0.00 0.00 0.00 53 1011.9
20260504230352 60 0.0 0.0 0.00 0.00 0.00 53 1011.9
20260504230320 60 0.0 0.0 0.00 0.00 0.00 53 1011.9
20260504230249 60 0.0 0.0 0.00 0.00 0.00 53 1011.9
20260504230218 60 0.0 0.0 0.00 0.00 0.00 53 1011.9
20260504230146 60 0.0 0.0 0.00 0.00 0.00 53 1011.9
20260504230114 60 0.0 0.0 0.00 0.00 0.00 53 1012.0
20260504230043 60 0.0 0.0 0.00 0.00 0.00 53 1011.9
20260504230011 61 0.0 0.0 0.00 0.00 0.00 53 1011.9
20260504225938 61 0.0 0.0 0.00 0.00 0.00 53 1012.0
20260504225907 61 0.0 0.0 0.00 0.00 0.00 53 1011.9
20260504225835 61 0.0 0.0 0.00 0.00 0.00 53 1011.9
20260504225804 61 0.0 0.0 0.00 0.00 0.00 53 1011.9
20260504225732 61 0.0 0.0 0.00 0.00 0.00 53 1012.0
20260504225700 61 0.0 0.0 0.00 0.00 0.00 53 1012.0
20260504225629 61 0.0 0.0 0.00 0.00 0.00 53 1011.9
20260504225557 61 0.0 0.0 0.00 0.00 0.00 52 1011.9
20260504225526 61 0.0 0.0 0.00 0.00 0.00 52 1011.9
20260504225454 61 0.0 0.0 0.00 0.00 0.00 52 1011.9
20260504225423 61 0.0 0.0 0.00 0.00 0.00 52 1011.9
20260504225351 61 0.0 0.0 0.00 0.00 0.00 52 1011.9
20260504225320 61 0.0 0.0 0.00 0.00 0.00 52 1011.9
20260504225248 61 0.0 0.0 0.00 0.00 0.00 52 1011.9
20260504225217 61 0.0 0.0 0.00 0.00 0.00 51 1011.9
20260504225145 62 0.0 0.0 0.00 0.00 0.00 51 1011.9
20260504225113 62 0.0 0.0 0.00 0.00 0.00 51 1011.9
20260504225042 62 0.0 0.0 0.00 0.00 0.00 51 1011.9
20260504225010 62 0.0 0.0 0.00 0.00 0.00 51 1011.9
20260504224939 62 0.0 0.0 0.00 0.00 0.00 51 1011.9
20260504224907 62 0.0 0.0 0.00 0.00 0.00 51 1011.9
20260504224836 62 0.0 0.0 0.00 0.00 0.00 51 1011.9
20260504224804 62 0.0 0.0 0.00 0.00 0.00 51 1011.9
20260504224733 62 0.0 0.0 0.00 0.00 0.00 51 1011.9
20260504224701 62 0.0 0.0 0.00 0.00 0.00 51 1011.9
20260504224630 62 0.0 0.0 0.00 0.00 0.00 51 1011.9
20260504224558 62 0.0 0.0 0.00 0.00 0.00 51 1011.9
20260504224527 62 0.0 0.0 0.00 0.00 0.00 51 1011.9
20260504224455 62 0.0 0.0 0.00 0.00 0.00 51 1011.9
20260504224424 62 0.0 0.0 0.00 0.00 0.00 51 1011.9
20260504224352 62 0.0 0.0 0.00 0.00 0.00 51 1011.9
20260504224320 62 0.0 0.0 0.00 0.00 0.00 51 1011.9
20260504224249 62 0.0 0.0 0.00 0.00 0.00 51 1011.9
20260504224217 62 0.0 0.0 0.00 0.00 0.00 51 1011.9
20260504224146 62 0.0 0.0 0.00 0.00 0.00 51 1012.0
20260504224114 62 0.0 0.0 0.00 0.00 0.00 51 1012.0
20260504224043 62 0.0 0.0 0.00 0.00 0.00 51 1011.9
20260504224011 62 0.0 0.0 0.00 0.00 0.00 51 1012.0
20260504223940 62 0.0 0.0 0.00 0.00 0.00 50 1012.0
20260504223908 62 0.0 0.0 0.00 0.00 0.00 50 1012.0
20260504223837 62 0.0 0.0 0.00 0.00 0.00 50 1012.0
20260504223805 62 0.0 0.0 0.00 0.00 0.00 50 1012.0
20260504223734 62 0.0 0.0 0.00 0.00 0.00 50 1012.0
20260504223702 62 0.0 0.0 0.00 0.00 0.00 50 1012.0
20260504223631 62 0.0 0.0 0.00 0.00 0.00 50 1012.0
20260504223559 62 0.0 0.0 0.00 0.00 0.00 50 1012.0
20260504223528 62 0.0 0.0 0.00 0.00 0.00 50 1012.0
20260504223456 62 0.0 0.0 0.00 0.00 0.00 50 1012.0
20260504223424 62 0.0 0.0 0.00 0.00 0.00 50 1012.0
20260504223353 62 0.0 0.0 0.00 0.00 0.00 50 1012.0
20260504223321 62 0.0 0.0 0.00 0.00 0.00 50 1012.0
20260504223250 62 0.0 0.0 0.00 0.00 0.00 50 1012.0
20260504223218 62 0.0 0.0 0.00 0.00 0.00 50 1012.0
20260504223147 62 0.0 0.0 0.00 0.00 0.00 50 1012.0
20260504223115 62 0.0 0.0 0.00 0.00 0.00 50 1012.0
20260504223044 62 0.0 0.0 0.00 0.00 0.00 50 1012.0
20260504223012 62 0.0 0.0 0.00 0.00 0.00 50 1012.1
20260504222941 62 0.0 0.0 0.00 0.00 0.00 50 1012.1
20260504222909 62 0.0 0.0 0.00 0.00 0.00 50 1012.0
20260504222838 62 0.0 0.0 0.00 0.00 0.00 50 1012.1
20260504222806 62 0.0 0.0 0.00 0.00 0.00 50 1012.0
20260504222735 62 0.0 0.0 0.00 0.00 0.00 50 1012.0
20260504222703 62 0.0 0.0 0.00 0.00 0.00 50 1012.0
20260504222631 62 0.0 0.0 0.00 0.00 0.00 50 1012.0
20260504222600 62 0.0 0.0 0.00 0.00 0.00 50 1012.0
20260504222528 62 0.0 0.0 0.00 0.00 0.00 50 1012.0
20260504222457 62 0.0 0.0 0.00 0.00 0.00 49 1012.0
20260504222425 62 0.0 0.0 0.00 0.00 0.00 50 1012.0
20260504222354 63 0.0 0.0 0.00 0.00 0.00 50 1012.0
20260504222322 62 0.0 0.0 0.00 0.00 0.00 50 1012.0
20260504222251 62 0.0 0.0 0.00 0.00 0.00 50 1012.0
20260504222219 62 0.0 0.0 0.00 0.00 0.00 50 1012.0
20260504222147 62 0.0 0.0 0.00 0.00 0.00 50 1012.0
20260504222116 62 0.0 0.0 0.00 0.00 0.00 50 1012.1
20260504222044 62 0.0 0.0 0.00 0.00 0.00 49 1012.1
20260504222013 62 0.0 0.0 0.00 0.00 0.00 49 1012.1
20260504221941 62 0.0 0.0 0.00 0.00 0.00 49 1012.1
20260504221910 62 0.0 0.0 0.00 0.00 0.00 50 1012.1
20260504221838 62 0.0 0.0 0.00 0.00 0.00 49 1012.0
20260504221807 62 0.0 0.0 0.00 0.00 0.00 49 1012.1
20260504221735 62 0.0 0.0 0.00 0.00 0.00 49 1012.1
20260504221703 62 0.0 0.0 0.00 0.00 0.00 49 1012.1
20260504221631 62 0.0 0.0 0.00 0.00 0.00 49 1012.0
20260504221600 62 0.0 0.0 0.00 0.00 0.00 49 1012.1
20260504221528 62 0.0 0.0 0.00 0.00 0.00 49 1012.1
20260504221457 62 0.0 0.0 0.00 0.00 0.00 49 1012.1
20260504221425 62 0.0 0.0 0.00 0.00 0.00 49 1012.1
20260504221354 62 0.0 0.0 0.00 0.00 0.00 49 1012.1
20260504221322 62 0.0 0.0 0.00 0.00 0.00 49 1012.1
20260504221251 62 0.0 0.0 0.00 0.00 0.00 49 1012.1
20260504221219 63 0.0 0.0 0.00 0.00 0.00 49 1012.1
20260504221147 63 0.0 0.0 0.00 0.00 0.00 49 1012.1
20260504221116 63 0.0 0.0 0.00 0.00 0.00 49 1012.1
20260504221044 63 0.0 0.0 0.00 0.00 0.00 49 1012.0
20260504221013 63 0.0 0.0 0.00 0.00 0.00 49 1012.0
20260504220941 63 0.0 0.0 0.00 0.00 0.00 49 1012.0
20260504220910 63 0.0 0.0 0.00 0.00 0.00 50 1012.0
20260504220838 63 0.0 0.0 0.00 0.00 0.00 50 1012.0
20260504220807 63 0.0 0.0 0.00 0.00 0.00 50 1012.0
20260504220735 62 0.0 0.0 0.00 0.00 0.00 50 1011.9
20260504220704 62 0.0 0.0 0.00 0.00 0.00 50 1011.9
20260504220632 62 0.0 0.0 0.00 0.00 0.00 50 1011.9
20260504220559 62 0.0 0.0 0.00 0.00 0.00 50 1011.9
20260504220528 63 0.0 0.0 0.00 0.00 0.00 50 1011.9
20260504220456 63 0.0 0.0 0.00 0.00 0.00 50 1011.8
20260504220425 63 0.0 0.0 0.00 0.00 0.00 50 1011.8
20260504220353 63 0.0 0.0 0.00 0.00 0.00 50 1011.9
20260504220322 63 0.0 0.0 0.00 0.00 0.00 50 1011.9
20260504220250 63 0.0 0.0 0.00 0.00 0.00 50 1011.8
20260504220219 62 0.0 0.0 0.00 0.00 0.00 50 1011.9
20260504220147 62 0.0 0.0 0.00 0.00 0.00 50 1011.9
20260504220116 62 0.0 0.0 0.00 0.00 0.00 50 1011.9
20260504220044 62 0.0 0.0 0.00 0.00 0.00 50 1011.9
20260504220012 62 0.0 0.0 0.00 0.00 0.00 50 1011.9
20260504215941 62 0.0 0.0 0.00 0.00 0.00 50 1011.9
20260504215909 62 0.0 0.0 0.00 0.00 0.00 50 1011.9
20260504215838 61 0.0 0.0 0.00 0.00 0.00 51 1012.0
20260504215806 61 0.0 0.0 0.00 0.00 0.00 51 1012.0
20260504215735 61 0.0 0.0 0.00 0.00 0.00 50 1012.0
20260504215703 60 0.0 0.0 0.00 0.00 0.00 50 1012.0
20260504215632 60 0.0 0.0 0.00 0.00 0.00 51 1012.1
20260504215600 60 0.0 0.0 0.00 0.00 0.00 50 1012.1
20260504215528 60 0.0 0.0 0.00 0.00 0.00 50 1012.1
20260504215457 60 0.0 0.0 0.00 0.00 0.00 50 1012.1
20260504215425 60 0.0 0.0 0.00 0.00 0.00 50 1012.1
20260504215354 60 0.0 0.0 0.00 0.00 0.00 50 1012.1
20260504215322 60 0.0 0.0 0.00 0.00 0.00 50 1012.2
20260504215250 60 0.0 0.0 0.00 0.00 0.00 50 1012.2
20260504215219 60 0.0 0.0 0.00 0.00 0.00 50 1012.2
20260504215147 60 0.0 0.0 0.00 0.00 0.00 49 1012.2
20260504215116 60 0.0 0.0 0.00 0.00 0.00 49 1012.2
20260504215045 60 0.0 0.0 0.00 0.00 0.00 49 1012.1
20260504215013 60 0.0 0.0 0.00 0.00 0.00 49 1012.1
20260504214941 60 0.0 0.0 0.00 0.00 0.00 49 1012.0
20260504214910 60 0.0 0.0 0.00 0.00 0.00 49 1012.0
20260504214838 60 0.0 0.0 0.00 0.00 0.00 48 1012.0
20260504214807 60 0.0 0.0 0.00 0.00 0.00 48 1011.9
20260504214735 60 0.0 0.0 0.00 0.00 0.00 48 1011.9
20260504214704 60 0.0 0.0 0.00 0.00 0.00 48 1011.9
20260504214632 60 0.0 0.0 0.00 0.00 0.00 48 1011.8
20260504214601 60 0.0 0.0 0.00 0.00 0.00 48 1011.8
20260504214529 60 0.0 0.0 0.00 0.00 0.00 48 1011.8
20260504214458 60 0.0 0.0 0.00 0.00 0.00 48 1011.7
20260504214427 60 0.0 0.0 0.00 0.00 0.00 48 1011.7
20260504214355 60 0.0 0.0 0.00 0.00 0.00 48 1011.7
20260504214323 60 0.0 0.0 0.00 0.00 0.00 48 1011.7
20260504214252 60 0.0 0.0 0.00 0.00 0.00 48 1011.7
20260504214220 60 0.0 0.0 0.00 0.00 0.00 48 1011.7
20260504214149 60 0.0 0.0 0.00 0.00 0.00 48 1011.7
20260504214117 60 0.0 0.0 0.00 0.00 0.00 48 1011.6
20260504214046 60 0.0 0.0 0.00 0.00 0.00 48 1011.6
20260504213942 60 0.0 0.0 0.00 0.00 0.00 48 1011.6
20260504213911 60 0.0 0.0 0.00 0.00 0.00 48 1011.6
20260504213839 60 0.0 0.0 0.00 0.00 0.00 48 1011.6
20260504213808 60 0.0 0.0 0.00 0.00 0.00 48 1011.6
20260504213736 60 0.0 0.0 0.00 0.00 0.00 48 1011.6
20260504213705 60 0.0 0.0 0.00 0.00 0.00 48 1011.7
20260504213633 60 0.0 0.0 0.00 0.00 0.00 48 1011.6
20260504213602 60 0.0 0.0 0.00 0.00 0.00 48 1011.6
20260504213530 60 0.0 0.0 0.00 0.00 0.00 48 1011.6
20260504213458 60 0.0 0.0 0.00 0.00 0.00 48 1011.6
20260504213427 60 0.0 0.0 0.00 0.00 0.00 48 1011.6
20260504213355 60 0.0 0.0 0.00 0.00 0.00 47 1011.6
20260504213324 60 0.0 0.0 0.00 0.00 0.00 47 1011.6
20260504213252 60 0.0 0.0 0.00 0.00 0.00 47 1011.7
20260504213221 60 0.0 0.0 0.00 0.00 0.00 47 1011.6
20260504213149 61 0.0 0.0 0.00 0.00 0.00 47 1011.7
20260504213118 61 0.0 0.0 0.00 0.00 0.00 47 1011.6
20260504213046 61 0.0 0.0 0.00 0.00 0.00 47 1011.6
20260504213015 61 0.0 0.0 0.00 0.00 0.00 47 1011.6
20260504212943 61 0.0 0.0 0.00 0.00 0.00 47 1011.7
20260504212912 61 0.0 0.0 0.00 0.00 0.00 47 1011.6
20260504212840 61 0.0 0.0 0.00 0.00 0.00 47 1011.7
20260504212809 61 0.0 0.0 0.00 0.00 0.00 47 1011.7
20260504212737 61 0.0 0.0 0.00 0.00 0.00 47 1011.7
20260504212705 61 0.0 0.0 0.00 0.00 0.00 47 1011.7
20260504212634 61 0.0 0.0 0.00 0.00 0.00 47 1011.7
20260504212602 61 0.0 0.0 0.00 0.00 0.00 47 1011.7
20260504212531 61 0.0 0.0 0.00 0.00 0.00 47 1011.7
20260504212459 61 0.0 0.0 0.00 0.00 0.00 47 1011.7
20260504212427 61 0.0 0.0 0.00 0.00 0.00 47 1011.7
20260504212355 61 0.0 0.0 0.00 0.00 0.00 47 1011.7
20260504212324 61 0.0 0.0 0.00 0.00 0.00 47 1011.7
20260504212252 61 0.0 0.0 0.00 0.00 0.00 47 1011.7
20260504212221 61 0.0 0.0 0.00 0.00 0.00 47 1011.8
20260504212148 61 0.0 0.0 0.00 0.00 0.00 47 1011.7
20260504212117 61 0.0 0.0 0.00 0.00 0.00 47 1011.7
20260504212045 61 0.0 0.0 0.00 0.00 0.00 47 1011.7
20260504212013 61 0.0 0.0 0.00 0.00 0.00 47 1011.8
20260504211942 61 0.0 0.0 0.00 0.00 0.00 47 1011.8
20260504211910 61 0.0 0.0 0.00 0.00 0.00 47 1011.8
20260504211839 60 0.0 0.0 0.00 0.00 0.00 47 1011.8
20260504211807 60 0.0 0.0 0.00 0.00 0.00 47 1011.8
20260504211736 60 0.0 0.0 0.00 0.00 0.00 47 1011.8
20260504211704 60 0.0 0.0 0.00 0.00 0.00 47 1011.8
20260504211602 60 0.0 0.0 0.00 0.00 0.00 47 1011.8
20260504211529 61 0.0 0.0 0.00 0.00 0.00 47 1011.8
20260504211458 60 0.0 0.0 0.00 0.00 0.00 47 1011.8
20260504211426 60 0.0 0.0 0.00 0.00 0.00 47 1011.8
20260504211355 60 0.0 0.0 0.00 0.00 0.00 47 1011.8
20260504211323 60 0.0 0.0 0.00 0.00 0.00 47 1011.8
20260504211252 61 0.0 0.0 0.00 0.00 0.00 47 1011.8
20260504211220 61 0.0 0.0 0.00 0.00 0.00 47 1011.8
20260504211149 61 0.0 0.0 0.00 0.00 0.00 46 1011.9
20260504211117 61 0.0 0.0 0.00 0.00 0.00 46 1011.8
20260504211046 61 0.0 0.0 0.00 0.00 0.00 46 1011.9
20260504211014 61 0.0 0.0 0.00 0.00 0.00 46 1011.8
20260504210943 61 0.0 0.0 0.00 0.00 0.00 46 1011.8
20260504210911 61 0.0 0.0 0.00 0.00 0.00 46 1011.8
20260504210840 61 0.0 0.0 0.00 0.00 0.00 46 1011.8
20260504210808 61 0.0 0.0 0.00 0.00 0.00 46 1011.8
20260504210736 61 0.0 0.0 0.00 0.00 0.00 46 1011.8
20260504210705 61 0.0 0.0 0.00 0.00 0.00 46 1011.8
20260504210633 61 0.0 0.0 0.00 0.00 0.00 46 1011.8
20260504210602 61 0.0 0.0 0.00 0.00 0.00 46 1011.8
20260504210530 61 0.0 0.0 0.00 0.00 0.00 46 1011.8
20260504210458 61 0.0 0.0 0.00 0.00 0.00 46 1011.9
20260504210427 61 0.0 0.0 0.00 0.00 0.00 46 1011.9
20260504210355 61 0.0 0.0 0.00 0.00 0.00 46 1011.8
20260504210324 61 0.0 0.0 0.00 0.00 0.00 46 1011.8
20260504210252 61 0.0 0.0 0.00 0.00 0.00 46 1011.8
20260504210221 61 0.0 0.0 0.00 0.00 0.00 46 1011.8
20260504210149 61 0.0 0.0 0.00 0.00 0.00 46 1011.8
20260504210118 61 0.0 0.0 0.00 0.00 0.00 46 1011.8
20260504210046 61 0.0 0.0 0.00 0.00 0.00 46 1011.8
20260504210015 61 0.0 0.0 0.00 0.00 0.00 46 1011.8
20260504205943 61 0.0 0.0 0.00 0.00 0.00 46 1011.8
20260504205912 61 0.0 0.0 0.00 0.00 0.00 45 1011.8
20260504205840 61 0.0 0.0 0.00 0.00 0.00 45 1011.8
20260504205809 61 0.0 0.0 0.00 0.00 0.00 45 1011.8
20260504205737 61 0.0 0.0 0.00 0.00 0.00 45 1011.8
20260504205706 61 0.0 0.0 0.00 0.00 0.00 45 1011.7
20260504205634 61 0.0 0.0 0.00 0.00 0.00 45 1011.8
20260504205603 61 0.0 0.0 0.00 0.00 0.00 45 1011.8
20260504205531 61 0.0 0.0 0.00 0.00 0.00 45 1011.8
20260504205500 62 0.0 0.0 0.00 0.00 0.00 45 1011.8
20260504205427 61 0.0 0.0 0.00 0.00 0.00 45 1011.8
20260504205356 62 0.0 0.0 0.00 0.00 0.00 45 1011.8
20260504205324 62 0.0 0.0 0.00 0.00 0.00 45 1011.8
20260504205253 62 0.0 0.0 0.00 0.00 0.00 45 1011.8
20260504205221 62 0.0 0.0 0.00 0.00 0.00 45 1011.8
20260504205149 62 0.0 0.0 0.00 0.00 0.00 45 1011.8
20260504205118 62 0.0 0.0 0.00 0.00 0.00 45 1011.8
20260504205046 62 0.0 0.0 0.00 0.00 0.00 45 1011.8
20260504205015 62 0.0 0.0 0.00 0.00 0.00 45 1011.8
20260504204943 62 0.0 0.0 0.00 0.00 0.00 45 1011.8
20260504204912 62 0.0 0.0 0.00 0.00 0.00 45 1011.8
20260504204840 62 0.0 0.0 0.00 0.00 0.00 45 1011.8
20260504204809 62 0.0 0.0 0.00 0.00 0.00 45 1011.8
20260504204737 62 0.0 0.0 0.00 0.00 0.00 45 1011.8
20260504204706 62 0.0 0.0 0.00 0.00 0.00 45 1011.8
20260504204633 62 0.0 0.0 0.00 0.00 0.00 45 1011.7
20260504204602 62 0.0 0.0 0.00 0.00 0.00 45 1011.7
20260504204530 62 0.0 0.0 0.00 0.00 0.00 45 1011.8
20260504204459 62 0.0 0.0 0.00 0.00 0.00 45 1011.8
20260504204427 62 0.0 0.0 0.00 0.00 0.00 45 1011.7
20260504204356 62 0.0 0.0 0.00 0.00 0.00 45 1011.8
20260504204324 62 0.0 0.0 0.00 0.00 0.00 45 1011.7
20260504204253 62 0.0 0.0 0.00 0.00 0.00 45 1011.7
20260504204221 62 0.0 0.0 0.00 0.00 0.00 45 1011.7
20260504204150 62 0.0 0.0 0.00 0.00 0.00 44 1011.7
20260504204118 62 0.0 0.0 0.00 0.00 0.00 44 1011.7
20260504204047 62 0.0 0.0 0.00 0.00 0.00 44 1011.7
20260504204015 62 0.0 0.0 0.00 0.00 0.00 44 1011.7
20260504203943 62 0.0 0.0 0.00 0.00 0.00 44 1011.7
20260504203912 62 0.0 0.0 0.00 0.00 0.00 44 1011.7
20260504203840 62 0.0 0.0 0.00 0.00 0.00 44 1011.7
20260504203809 62 0.0 0.0 0.00 0.00 0.00 44 1011.8
20260504203737 62 0.0 0.0 0.00 0.00 0.00 44 1011.8
20260504203706 62 0.0 0.0 0.00 0.00 0.00 44 1011.7
20260504203634 62 0.0 0.0 0.00 0.00 0.00 44 1011.7
20260504203603 62 0.0 0.0 0.00 0.00 0.00 44 1011.7
20260504203531 62 0.0 0.0 0.00 0.00 0.00 44 1011.7
20260504203500 63 0.0 0.0 0.00 0.00 0.00 44 1011.7
20260504203428 63 0.0 0.0 0.00 0.00 0.00 44 1011.7
20260504203357 63 0.0 0.0 0.00 0.00 0.00 44 1011.7
20260504203325 63 0.0 0.0 0.00 0.00 0.00 44 1011.7
20260504203253 63 0.0 0.0 0.00 0.00 0.00 44 1011.7
20260504203222 63 0.0 0.0 0.00 0.00 0.00 44 1011.7
20260504203150 63 0.0 0.0 0.00 0.00 0.00 44 1011.7
20260504203119 63 0.0 0.0 0.00 0.00 0.00 44 1011.7
20260504203048 63 0.0 0.0 0.00 0.00 0.00 43 1011.7
20260504203015 63 0.0 0.0 0.00 0.00 0.00 43 1011.7
20260504202943 63 0.0 0.0 0.00 0.00 0.00 43 1011.7
20260504202912 63 0.0 0.0 0.00 0.00 0.00 43 1011.7
20260504202808 63 0.0 0.0 0.00 0.00 0.00 43 1011.7
20260504202737 63 0.0 0.0 0.00 0.00 0.00 43 1011.7
20260504202705 63 0.0 0.0 0.00 0.00 0.00 43 1011.7
20260504202634 63 0.0 0.0 0.00 0.00 0.00 43 1011.7
20260504202602 63 0.0 0.0 0.00 0.00 0.00 43 1011.6
20260504202531 63 0.0 0.0 0.00 0.00 0.00 43 1011.6
20260504202459 63 0.0 0.0 0.00 0.00 0.00 43 1011.6
20260504202428 63 0.0 0.0 0.00 0.00 0.00 43 1011.6
20260504202356 63 0.0 0.0 0.00 0.00 0.00 43 1011.6
20260504202325 63 0.0 0.0 0.00 0.00 0.00 43 1011.6
20260504202253 63 0.0 0.0 0.00 0.00 0.00 43 1011.6
20260504202221 63 0.0 0.0 0.00 0.00 0.00 43 1011.6
20260504202150 63 0.0 0.0 0.00 0.00 0.00 43 1011.5
20260504202118 63 0.0 0.0 0.00 0.00 0.00 43 1011.6
20260504202047 63 0.0 0.0 0.00 0.00 0.00 43 1011.6
20260504202015 63 0.0 0.0 0.00 0.00 0.00 43 1011.6
20260504201944 63 0.0 0.0 0.00 0.00 0.00 43 1011.6
20260504201912 63 0.0 0.0 0.00 0.00 0.00 43 1011.6
20260504201841 63 0.0 0.0 0.00 0.00 0.00 43 1011.6
20260504201809 64 0.0 0.0 0.00 0.00 0.00 43 1011.6
20260504201737 64 0.0 0.0 0.00 0.00 0.00 43 1011.5
20260504201706 64 0.0 0.0 0.00 0.00 0.00 43 1011.5
20260504201634 64 0.0 0.0 0.00 0.00 0.00 43 1011.6
20260504201603 64 0.0 0.0 0.00 0.00 0.00 43 1011.6
20260504201531 64 0.0 0.0 0.00 0.00 0.00 43 1011.5
20260504201500 64 0.0 0.0 0.00 0.00 0.00 42 1011.5
20260504201428 64 0.0 0.0 0.00 0.00 0.00 42 1011.5
20260504201357 64 0.0 0.0 0.00 0.00 0.00 42 1011.5
20260504201325 64 0.0 0.0 0.00 0.00 0.00 42 1011.5
20260504201253 64 0.0 0.0 0.00 0.00 0.00 42 1011.5
20260504201222 64 0.0 0.0 0.00 0.00 0.00 42 1011.5
20260504201150 64 0.0 0.0 0.00 0.00 0.00 42 1011.6
20260504201119 64 0.0 0.0 0.00 0.00 0.00 42 1011.5
20260504201048 64 0.0 0.0 0.00 0.00 0.00 42 1011.6
20260504201016 64 0.0 0.0 0.00 0.00 0.00 42 1011.6
20260504200945 64 0.0 0.0 0.00 0.00 0.00 42 1011.6
20260504200913 64 0.0 0.0 0.00 0.00 0.00 42 1011.5
20260504200841 64 0.0 0.0 0.00 0.00 0.00 42 1011.5
20260504200738 64 0.0 0.0 0.00 0.00 0.00 42 1011.5
20260504200707 64 0.0 0.0 0.00 0.00 0.00 42 1011.5
20260504200635 64 0.0 0.0 0.00 0.00 0.00 42 1011.5
20260504200604 64 0.0 0.0 0.00 0.00 0.00 42 1011.5
20260504200532 64 0.0 0.0 0.00 0.00 0.00 42 1011.5
20260504200501 64 0.0 0.0 0.00 0.00 0.00 42 1011.5
20260504200429 64 0.0 0.0 0.00 0.00 0.00 42 1011.5
20260504200357 64 0.0 0.0 0.00 0.00 0.00 42 1011.5
20260504200326 64 0.0 0.0 0.00 0.00 0.00 41 1011.5
20260504200254 64 0.0 0.0 0.00 0.00 0.00 41 1011.5
20260504200223 64 0.0 0.0 0.00 0.00 0.00 41 1011.5
20260504200151 64 0.0 0.0 0.00 0.00 0.00 41 1011.5
20260504200119 64 0.0 0.0 0.00 0.00 0.00 41 1011.5
20260504200047 64 0.0 0.0 0.00 0.00 0.00 41 1011.5
20260504200016 64 0.0 0.0 0.00 0.00 0.00 41 1011.5
20260504195944 64 0.0 0.0 0.00 0.00 0.00 41 1011.5
20260504195912 64 0.0 0.0 0.00 0.00 0.00 41 1011.5
20260504195841 64 0.0 0.0 0.00 0.00 0.00 41 1011.5
20260504195809 64 0.0 0.0 0.00 0.00 0.00 41 1011.5
20260504195738 64 0.0 0.0 0.00 0.00 0.00 41 1011.5
20260504195706 64 0.0 0.0 0.00 0.00 0.00 41 1011.5
20260504195635 65 0.0 0.0 0.00 0.00 0.00 41 1011.5
20260504195603 65 0.0 0.0 0.00 0.00 0.00 41 1011.5
20260504195532 65 0.0 0.0 0.00 0.00 0.00 41 1011.5
20260504195500 65 0.0 0.0 0.00 0.00 0.00 41 1011.5
20260504195429 65 0.0 0.0 0.00 0.00 0.00 41 1011.5
20260504195357 65 0.0 0.0 0.00 0.00 0.00 41 1011.5
20260504195326 65 0.0 0.0 0.00 0.00 0.00 40 1011.4
20260504195254 65 0.0 0.0 0.00 0.00 0.00 40 1011.4
20260504195223 65 0.0 0.0 0.00 0.00 0.00 40 1011.5
20260504195151 65 0.0 0.0 0.00 0.00 0.00 40 1011.4
20260504195119 65 0.0 0.0 0.00 0.00 0.00 40 1011.4
20260504195047 65 0.0 0.0 0.00 0.00 0.00 40 1011.4
20260504195016 65 0.0 0.0 0.00 0.00 0.00 40 1011.4
20260504194944 65 0.0 0.0 0.00 0.00 0.00 40 1011.4
20260504194912 65 0.0 0.0 0.00 0.00 0.00 40 1011.4
20260504194841 65 0.0 0.0 0.00 0.00 0.00 40 1011.4
20260504194809 65 0.0 0.0 0.00 0.00 0.00 40 1011.4
20260504194738 65 0.0 0.0 0.00 0.00 0.00 40 1011.4
20260504194706 65 0.0 0.0 0.00 0.00 0.00 40 1011.4
20260504194635 65 0.0 0.0 0.00 0.00 0.00 40 1011.4
20260504194603 65 0.0 0.0 0.00 0.00 0.00 40 1011.4
20260504194532 65 0.0 0.0 0.00 0.00 0.00 40 1011.5
20260504194500 65 0.0 0.0 0.00 0.00 0.00 40 1011.5
20260504194429 66 0.0 0.0 0.00 0.00 0.00 40 1011.4
20260504194357 66 0.0 0.0 0.00 0.00 0.00 39 1011.4
20260504194325 66 0.0 0.0 0.00 0.00 0.00 39 1011.4
20260504194254 66 0.0 0.0 0.00 0.00 0.00 39 1011.4
20260504194223 66 0.0 0.0 0.00 0.00 0.00 39 1011.4
20260504194151 66 0.0 0.0 0.00 0.00 0.00 39 1011.4
20260504194119 66 0.0 0.0 0.00 0.00 0.00 39 1011.4
20260504194048 66 0.0 0.0 0.00 0.00 0.00 39 1011.4
20260504194016 66 0.0 0.0 0.00 0.00 0.00 39 1011.4
20260504193945 66 0.0 0.0 0.00 0.00 0.00 39 1011.4
20260504193913 66 0.0 0.0 0.00 0.00 0.00 39 1011.4
20260504193842 66 0.0 0.0 0.00 0.00 0.00 39 1011.4
20260504193810 66 0.0 0.0 0.00 0.00 0.00 39 1011.4
20260504193739 66 0.0 0.0 0.00 0.00 0.00 39 1011.4
20260504193707 66 0.0 0.0 0.00 0.00 0.00 39 1011.4
20260504193635 66 0.0 0.0 0.00 0.00 0.00 39 1011.4
20260504193604 66 0.0 0.0 0.00 0.00 0.00 39 1011.4
20260504193532 66 0.0 0.0 0.00 0.00 0.00 39 1011.4
20260504193501 66 0.0 0.0 0.00 0.00 0.00 39 1011.4
20260504193429 66 0.0 0.0 0.00 0.00 0.00 39 1011.4
20260504193358 66 0.0 0.0 0.00 0.00 0.00 39 1011.4
20260504193326 66 0.0 0.0 0.00 0.00 0.00 39 1011.4
20260504193255 66 0.0 0.0 0.00 0.00 0.00 39 1011.4
20260504193224 66 0.0 0.0 0.00 0.00 0.00 38 1011.4
20260504193152 66 0.0 0.0 0.00 0.00 0.00 38 1011.4
20260504193120 67 0.0 0.0 0.00 0.00 0.00 38 1011.4
20260504193049 67 0.0 0.0 0.00 0.00 0.00 38 1011.4
20260504193017 67 0.0 0.0 0.00 0.00 0.00 38 1011.4
20260504192945 67 0.0 0.0 0.00 0.00 0.00 38 1011.4
20260504192914 67 0.0 0.0 0.00 0.00 0.00 38 1011.4
20260504192842 67 0.0 0.0 0.00 0.00 0.00 38 1011.4
20260504192739 67 0.0 0.0 0.00 0.00 0.00 38 1011.4
20260504192707 67 0.0 0.0 0.00 0.00 0.00 38 1011.4
20260504192636 67 0.0 0.0 0.00 0.00 0.00 38 1011.4
20260504192604 67 0.0 0.0 0.00 0.00 0.00 38 1011.4
20260504192533 67 0.0 0.0 0.00 0.00 0.00 38 1011.4
20260504192501 67 0.0 0.0 0.00 0.00 0.00 38 1011.4
20260504192430 67 0.0 0.0 0.00 0.00 0.00 38 1011.4
20260504192358 67 0.0 0.0 0.00 0.00 0.00 38 1011.4
20260504192327 67 0.0 0.0 0.00 0.00 0.00 38 1011.4
20260504192255 67 0.0 0.0 0.00 0.00 0.00 38 1011.4
20260504192224 67 0.0 0.0 0.00 0.00 0.00 38 1011.4
20260504192152 67 0.0 0.0 0.00 0.00 0.00 38 1011.4
20260504192121 67 0.0 0.0 0.00 0.00 0.00 38 1011.4
20260504192049 67 0.0 0.0 0.00 0.00 0.00 37 1011.4
20260504192018 67 0.0 0.0 0.00 0.00 0.00 37 1011.4
20260504191946 67 0.0 0.0 0.00 0.00 0.00 37 1011.4
20260504191915 67 0.0 0.0 0.00 0.00 0.00 37 1011.4
20260504191843 67 0.0 0.0 0.00 0.00 0.00 37 1011.4
20260504191812 67 0.0 0.0 0.00 0.00 0.00 37 1011.4
20260504191740 67 0.0 0.0 0.00 0.00 0.00 37 1011.3
20260504191708 67 0.0 0.0 0.00 0.00 0.00 37 1011.4
20260504191637 67 0.0 0.0 0.00 0.00 0.00 37 1011.4
20260504191605 67 0.0 0.0 0.00 0.00 0.00 37 1011.4
20260504191534 67 0.0 0.0 0.00 0.00 0.00 37 1011.4
20260504191502 68 0.0 0.0 0.00 0.00 0.00 37 1011.4
20260504191431 68 0.0 0.0 0.00 0.00 0.00 37 1011.4
20260504191359 68 0.0 0.0 0.00 0.00 0.00 37 1011.4
20260504191328 68 0.0 0.0 0.00 0.00 0.00 37 1011.4
20260504191256 68 0.0 0.0 0.00 0.00 0.00 37 1011.4
20260504191224 68 0.0 0.0 0.00 0.00 0.00 37 1011.4
20260504191153 68 0.0 0.0 0.00 0.00 0.00 37 1011.4
20260504191121 68 0.0 0.0 0.00 0.00 0.00 37 1011.4
20260504191048 68 0.0 0.0 0.00 0.00 0.00 37 1011.3
20260504191017 68 0.0 0.0 0.00 0.00 0.00 37 1011.3
20260504190945 68 0.0 0.0 0.00 0.00 0.00 37 1011.3
20260504190913 68 0.0 0.0 0.00 0.00 0.00 37 1011.3
20260504190842 68 0.0 0.0 0.00 0.00 0.00 37 1011.3
20260504190810 68 0.0 0.0 0.00 0.00 0.00 37 1011.3
20260504190738 68 0.0 0.0 0.00 0.00 0.00 37 1011.3
20260504190707 68 0.0 0.0 0.00 0.00 0.00 37 1011.3
20260504190635 68 0.0 0.0 0.00 0.00 0.00 37 1011.3
20260504190604 68 0.0 0.0 0.00 0.00 0.00 37 1011.3
20260504190531 68 0.0 0.0 0.00 0.00 0.00 36 1011.3
20260504190500 68 0.0 0.0 0.00 0.00 0.00 36 1011.3
20260504190428 68 0.0 0.0 0.00 0.00 0.00 36 1011.2
20260504190357 68 0.0 0.0 0.00 0.00 0.00 36 1011.3
20260504190324 68 0.0 0.0 0.00 0.00 0.00 36 1011.3
20260504190252 68 0.0 0.0 0.00 0.00 0.00 36 1011.3
20260504190221 68 0.0 0.0 0.00 0.00 0.00 36 1011.3
20260504190149 68 0.0 0.0 0.00 0.00 0.00 36 1011.3
20260504190118 68 0.0 0.0 0.00 0.00 0.00 36 1011.3
20260504190045 68 0.0 0.0 0.00 0.00 0.00 36 1011.3
20260504190013 68 0.0 0.0 0.00 0.00 0.00 36 1011.3
20260504185941 68 0.0 0.0 0.00 0.00 0.00 36 1011.3
20260504185910 68 0.0 0.0 0.00 0.00 0.00 36 1011.3
20260504185838 68 0.0 0.0 0.00 0.00 0.00 36 1011.3
20260504185807 68 0.0 0.0 0.00 0.00 0.00 36 1011.2
20260504185735 68 0.0 0.0 0.00 0.00 0.00 36 1011.2
20260504185703 68 0.0 0.0 0.00 0.00 0.00 36 1011.2
20260504185632 68 0.0 0.0 0.00 0.00 0.00 36 1011.2
20260504185601 68 0.0 0.0 0.00 0.00 0.00 36 1011.2
20260504185529 68 0.0 0.0 0.00 0.00 0.00 36 1011.2
20260504185457 68 0.0 0.0 0.00 0.00 0.00 36 1011.2
20260504185426 68 0.0 0.0 0.00 0.00 0.00 36 1011.2
20260504185354 68 0.0 0.0 0.00 0.00 0.00 36 1011.2
20260504185323 69 0.0 0.0 0.00 0.00 0.00 36 1011.2
20260504185251 69 0.0 0.0 0.00 0.00 0.00 36 1011.2
20260504185220 69 0.0 0.0 0.00 0.00 0.00 36 1011.2
20260504185148 69 0.0 0.0 0.00 0.00 0.00 36 1011.2
20260504185116 69 0.0 0.0 0.00 0.00 0.00 36 1011.2
20260504185045 69 0.0 0.0 0.00 0.00 0.00 36 1011.2
20260504185013 69 0.0 0.0 0.00 0.00 0.00 36 1011.1
20260504184942 69 0.0 0.0 0.00 0.00 0.00 35 1011.2
20260504184910 69 0.0 0.0 0.00 0.00 0.00 35 1011.2
20260504184840 69 0.0 0.0 0.00 0.00 0.00 35 1011.1
20260504184807 69 0.0 0.0 0.00 0.00 0.00 35 1011.1
20260504184736 69 0.0 0.0 0.00 0.00 0.00 35 1011.1
20260504184704 69 0.0 0.0 0.00 0.00 0.00 35 1011.1
20260504184632 69 0.0 0.0 0.00 0.00 0.00 35 1011.1
20260504184601 69 0.0 0.0 0.00 0.00 0.00 35 1011.1
20260504184529 69 0.0 0.0 0.00 0.00 0.00 35 1011.2
20260504184455 69 0.0 0.0 0.00 0.00 0.00 35 1011.1
20260504184423 69 0.0 0.0 0.00 0.00 0.00 35 1011.2
20260504184351 69 0.0 0.0 0.00 0.00 0.00 35 1011.2
20260504184320 69 0.0 0.0 0.00 0.00 0.00 35 1011.2
20260504184248 69 0.0 0.0 0.00 0.00 0.00 35 1011.2
20260504184216 69 0.0 0.0 0.00 0.00 0.00 35 1011.2
20260504184145 69 0.0 0.0 0.00 0.00 0.00 35 1011.2
20260504184112 69 0.0 0.0 0.00 0.00 0.00 35 1011.2
20260504184041 69 0.0 0.0 0.00 0.00 0.00 35 1011.2
20260504184009 69 0.0 0.0 0.00 0.00 0.00 35 1011.2
20260504183938 69 0.0 0.0 0.00 0.00 0.00 35 1011.2
20260504183906 69 0.0 0.0 0.00 0.00 0.00 35 1011.2
20260504183835 69 0.0 0.0 0.00 0.00 0.00 35 1011.2
20260504183803 70 0.0 0.0 0.00 0.00 0.00 34 1011.2
20260504183731 70 0.0 0.0 0.00 0.00 0.00 34 1011.2
20260504183700 70 0.0 0.0 0.00 0.00 0.00 34 1011.2
20260504183628 70 0.0 0.0 0.00 0.00 0.00 34 1011.2
20260504183557 70 0.0 0.0 0.00 0.00 0.00 34 1011.2
20260504183525 70 0.0 0.0 0.00 0.00 0.00 34 1011.2
20260504183454 70 0.0 0.0 0.00 0.00 0.00 34 1011.2
20260504183422 70 0.0 0.0 0.00 0.00 0.00 34 1011.1
20260504183351 70 0.0 0.0 0.00 0.00 0.00 34 1011.2
20260504183319 70 0.0 0.0 0.00 0.00 0.00 34 1011.2
20260504183248 70 0.0 0.0 0.00 0.00 0.00 34 1011.2
20260504183216 70 0.0 0.0 0.00 0.00 0.00 34 1011.2
20260504183145 70 0.0 0.0 0.00 0.00 0.00 34 1011.1
20260504183113 70 0.0 0.0 0.00 0.00 0.00 34 1011.1
20260504183041 70 0.0 0.0 0.00 0.00 0.00 34 1011.1
20260504183010 70 0.0 0.0 0.00 0.00 0.00 34 1011.1
20260504182939 70 0.0 0.0 0.00 0.00 0.00 33 1011.1
20260504182907 70 0.0 0.0 0.00 0.00 0.00 33 1011.1
20260504182835 70 0.0 0.0 0.00 0.00 0.00 33 1011.1
20260504182804 70 0.0 0.0 0.00 0.00 0.00 33 1011.1
20260504182733 71 0.0 0.0 0.00 0.00 0.00 33 1011.1
20260504182701 71 0.0 0.0 0.00 0.00 0.00 33 1011.1
20260504182629 71 0.0 0.0 0.00 0.00 0.00 33 1011.1
20260504182558 71 0.0 0.0 0.00 0.00 0.00 33 1011.1
20260504182526 71 0.0 0.0 0.00 0.00 0.00 33 1011.1
20260504182455 71 0.0 0.0 0.00 0.00 0.00 33 1011.1
20260504182423 71 0.0 0.0 0.00 0.00 0.00 33 1011.1
20260504182352 71 0.0 0.0 0.00 0.00 0.00 33 1011.1
20260504182320 71 0.0 0.0 0.00 0.00 0.00 33 1011.1
20260504182250 71 0.0 0.0 0.00 0.00 0.00 32 1011.2
20260504182217 71 0.0 0.0 0.00 0.00 0.00 32 1011.2
20260504182145 71 0.0 0.0 0.00 0.00 0.00 32 1011.2
20260504182114 71 0.0 0.0 0.00 0.00 0.00 32 1011.2
20260504182042 72 0.0 0.0 0.00 0.00 0.00 32 1011.2
20260504182011 72 0.0 0.0 0.00 0.00 0.00 32 1011.2
20260504181939 72 0.0 0.0 0.00 0.00 0.00 32 1011.2
20260504181907 72 0.0 0.0 0.00 0.00 0.00 32 1011.2
20260504181836 72 0.0 0.0 0.00 0.00 0.00 32 1011.2
20260504181804 72 0.0 0.0 0.00 0.00 0.00 32 1011.1
20260504181733 72 0.0 0.0 0.00 0.00 0.00 32 1011.2
20260504181701 72 0.0 0.0 0.00 0.00 0.00 32 1011.2
20260504181630 72 0.0 0.0 0.00 0.00 0.00 32 1011.2
20260504181558 72 0.0 0.0 0.00 0.00 0.00 32 1011.2
20260504181527 73 0.0 0.0 0.00 0.00 0.00 31 1011.2
20260504181455 73 0.0 0.0 0.00 0.00 0.00 31 1011.2
20260504181424 73 0.0 0.0 0.00 0.00 0.00 31 1011.2
20260504181352 73 0.0 0.0 0.00 0.00 0.00 31 1011.2
20260504181320 73 0.0 0.0 0.00 0.00 0.00 31 1011.1
20260504181249 73 0.0 0.0 0.00 0.00 0.00 31 1011.2
20260504181217 73 0.0 0.0 0.00 0.00 0.00 31 1011.1
20260504181145 73 0.0 0.0 0.00 0.00 0.00 31 1011.1
20260504181114 73 0.0 0.0 0.00 0.00 0.00 31 1011.1
20260504181042 73 0.0 0.0 0.00 0.00 0.00 31 1011.1
20260504180939 73 0.0 0.0 0.00 0.00 0.00 31 1011.2
20260504180907 73 0.0 0.0 0.00 0.00 0.00 31 1011.2
20260504180836 73 0.0 0.0 0.00 0.00 0.00 31 1011.1
20260504180803 73 0.0 0.0 0.00 0.00 0.00 31 1011.1
20260504180731 73 0.0 0.0 0.00 0.00 0.00 31 1011.2
20260504180700 73 0.0 0.0 0.00 0.00 0.00 31 1011.2
20260504180628 73 0.0 0.0 0.00 0.00 0.00 31 1011.2
20260504180556 73 0.0 0.0 0.00 0.00 0.00 31 1011.1
20260504180525 73 0.0 0.0 0.00 0.00 0.00 31 1011.2
20260504180453 73 0.0 0.0 0.00 0.00 0.00 31 1011.2
20260504180422 73 0.0 0.0 0.00 0.00 0.00 31 1011.2
20260504180350 73 0.0 0.0 0.00 0.00 0.00 31 1011.2
20260504180318 73 0.0 0.0 0.00 0.00 0.00 31 1011.2
20260504180247 73 0.0 0.0 0.00 0.00 0.00 31 1011.1
20260504180215 73 0.0 0.0 0.00 0.00 0.00 31 1011.1
20260504180143 73 0.0 0.0 0.00 0.00 0.00 31 1011.1
20260504180112 73 0.0 0.0 0.00 0.00 0.00 31 1011.1
20260504180040 73 0.0 0.0 0.00 0.00 0.00 31 1011.1
20260504180008 73 0.0 0.0 0.00 0.00 0.00 31 1011.2
20260504175936 73 0.0 0.0 0.00 0.00 0.00 31 1011.1
20260504175904 73 0.0 0.0 0.00 0.00 0.00 31 1011.1
20260504175833 73 0.0 0.0 0.00 0.00 0.00 31 1011.2
20260504175800 73 0.0 0.0 0.00 0.00 0.00 31 1011.2
20260504175729 73 0.0 0.0 0.00 0.00 0.00 31 1011.1
20260504175657 74 0.0 0.0 0.00 0.00 0.00 31 1011.1
20260504175626 74 0.0 0.0 0.00 0.00 0.00 31 1011.2
20260504175554 74 0.0 0.0 0.00 0.00 0.00 31 1011.1
20260504175522 74 0.0 0.0 0.00 0.00 0.00 31 1011.2
20260504175451 74 0.0 0.0 0.00 0.00 0.00 31 1011.2
20260504175419 74 0.0 0.0 0.00 0.00 0.00 31 1011.2
20260504175348 74 0.0 0.0 0.00 0.00 0.00 31 1011.2
20260504175316 74 0.0 0.0 0.00 0.00 0.00 31 1011.2
20260504175244 74 0.0 0.0 0.00 0.00 0.00 31 1011.2
20260504175213 74 0.0 0.0 0.00 0.00 0.00 31 1011.2
20260504175141 74 0.0 0.0 0.00 0.00 0.00 31 1011.2
20260504175109 74 0.0 0.0 0.00 0.00 0.00 31 1011.2
20260504175038 74 0.0 0.0 0.00 0.00 0.00 31 1011.2
20260504175006 74 0.0 0.0 0.00 0.00 0.00 30 1011.2
20260504174934 74 0.0 0.0 0.00 0.00 0.00 30 1011.2
20260504174903 74 0.0 0.0 0.00 0.00 0.00 30 1011.2
20260504174831 74 0.0 0.0 0.00 0.00 0.00 30 1011.2
20260504174759 74 0.0 0.0 0.00 0.00 0.00 30 1011.2
20260504174728 74 0.0 0.0 0.00 0.00 0.00 30 1011.2
20260504174656 74 0.0 0.0 0.00 0.00 0.00 30 1011.2
20260504174625 74 0.0 0.0 0.00 0.00 0.00 30 1011.2
20260504174553 74 0.0 0.0 0.00 0.00 0.00 30 1011.2
20260504174522 74 0.0 0.0 0.00 0.00 0.00 30 1011.3
20260504174450 74 0.0 0.0 0.00 0.00 0.00 30 1011.2
20260504174417 74 0.0 0.0 0.00 0.00 0.00 30 1011.2
20260504174346 74 0.0 0.0 0.00 0.00 0.00 30 1011.2
20260504174314 74 0.0 0.0 0.00 0.00 0.00 30 1011.2
20260504174213 74 0.0 0.0 0.00 0.00 0.00 30 1011.2
20260504174140 74 0.0 0.0 0.00 0.00 0.00 30 1011.2
20260504174109 74 0.0 0.0 0.00 0.00 0.00 30 1011.2
20260504174036 74 0.0 0.0 0.00 0.00 0.00 30 1011.2
20260504174005 74 0.0 0.0 0.00 0.00 0.00 30 1011.2
20260504173933 74 0.0 0.0 0.00 0.00 0.00 30 1011.2
20260504173902 74 0.0 0.0 0.00 0.00 0.00 30 1011.2
20260504173830 74 0.0 0.0 0.00 0.00 0.00 30 1011.2
20260504173727 74 0.0 0.0 0.00 0.00 0.00 30 1011.1
20260504173655 75 0.0 0.0 0.00 0.00 0.00 30 1011.2
20260504173623 74 0.0 0.0 0.00 0.00 0.00 30 1011.2
20260504173552 75 0.0 0.0 0.00 0.00 0.00 29 1011.2
20260504173520 75 0.0 0.0 0.00 0.00 0.00 29 1011.1
20260504173448 75 0.0 0.0 0.00 0.00 0.00 29 1011.2
20260504173417 75 0.0 0.0 0.00 0.00 0.00 29 1011.2
20260504173345 75 0.0 0.0 0.00 0.00 0.00 29 1011.2
20260504173314 75 0.0 0.0 0.00 0.00 0.00 29 1011.1
20260504173242 75 0.0 0.0 0.00 0.00 0.00 29 1011.2
20260504173208 75 0.0 0.0 0.00 0.00 0.00 29 1011.2
20260504173136 75 0.0 0.0 0.00 0.00 0.00 29 1011.2
20260504173105 75 0.0 0.0 0.00 0.00 0.00 29 1011.2
20260504173033 75 0.0 0.0 0.00 0.00 0.00 29 1011.2
20260504173001 75 0.0 0.0 0.00 0.00 0.00 29 1011.2
20260504172930 75 0.0 0.0 0.00 0.00 0.00 29 1011.2
20260504172859 75 0.0 0.0 0.00 0.00 0.00 29 1011.1
20260504172827 75 0.0 0.0 0.00 0.00 0.00 29 1011.1
20260504172755 75 0.0 0.0 0.00 0.00 0.00 29 1011.1
20260504172724 75 0.0 0.0 0.00 0.00 0.00 29 1011.2
20260504172652 75 0.0 0.0 0.00 0.00 0.00 29 1011.2
20260504172620 75 0.0 0.0 0.00 0.00 0.00 29 1011.2
20260504172548 75 0.0 0.0 0.00 0.00 0.00 29 1011.1
20260504172517 75 0.0 0.0 0.00 0.00 0.00 29 1011.1
20260504172445 75 0.0 0.0 0.00 0.00 0.00 29 1011.1
20260504172414 75 0.0 0.0 0.00 0.00 0.00 29 1011.1
20260504172342 75 0.0 0.0 0.00 0.00 0.00 29 1011.2
20260504172311 75 0.0 0.0 0.00 0.00 0.00 29 1011.1
20260504172239 75 0.0 0.0 0.00 0.00 0.00 29 1011.1
20260504172207 75 0.0 0.0 0.00 0.00 0.00 29 1011.1
20260504172135 75 0.0 0.0 0.00 0.00 0.00 29 1011.1
20260504172103 75 0.0 0.0 0.00 0.00 0.00 29 1011.1
20260504172031 75 0.0 0.0 0.00 0.00 0.00 28 1011.0
20260504171959 75 0.0 0.0 0.00 0.00 0.00 28 1011.1
20260504171928 75 0.0 0.0 0.00 0.00 0.00 28 1011.1
20260504171856 75 0.0 0.0 0.00 0.00 0.00 28 1011.1
20260504171825 75 0.0 0.0 0.00 0.00 0.00 28 1011.1
20260504171753 75 0.0 0.0 0.00 0.00 0.00 28 1011.1
20260504171722 75 0.0 0.0 0.00 0.00 0.00 28 1011.1
20260504171649 75 0.0 0.0 0.00 0.00 0.00 28 1011.0
20260504171617 75 0.0 0.0 0.00 0.00 0.00 28 1011.0
20260504171546 75 0.0 0.0 0.00 0.00 0.00 28 1011.0
20260504171514 75 0.0 0.0 0.00 0.00 0.00 28 1011.0
20260504171443 75 0.0 0.0 0.00 0.00 0.00 28 1011.0
20260504171410 75 0.0 0.0 0.00 0.00 0.00 28 1011.0
20260504171339 75 0.0 0.0 0.00 0.00 0.00 28 1011.1
20260504171306 75 0.0 0.0 0.00 0.00 0.00 28 1011.1
20260504171235 75 0.0 0.0 0.00 0.00 0.00 28 1011.1
20260504171203 75 0.0 0.0 0.00 0.00 0.00 28 1011.0
20260504171131 75 0.0 0.0 0.00 0.00 0.00 28 1011.1
20260504171059 75 0.0 0.0 0.00 0.00 0.00 27 1011.0
20260504171027 75 0.0 0.0 0.00 0.00 0.00 27 1011.0
20260504170956 75 0.0 0.0 0.00 0.00 0.00 28 1011.1
20260504170924 76 0.0 0.0 0.00 0.00 0.00 28 1011.1
20260504170853 76 0.0 0.0 0.00 0.00 0.00 28 1011.0
20260504170822 76 0.0 0.0 0.00 0.00 0.00 28 1011.0
20260504170750 76 0.0 0.0 0.00 0.00 0.00 28 1011.0
20260504170719 76 0.0 0.0 0.00 0.00 0.00 28 1011.1
20260504160441 81 0.0 0.0 0.00 0.00 0.00 25 1011.2
20260504160409 81 0.0 0.0 0.00 0.00 0.00 25 1011.2
20260504160338 81 0.0 0.0 0.00 0.00 0.00 25 1011.2
20260504160306 81 0.0 0.0 0.00 0.00 0.00 25 1011.2
20260504160235 81 0.0 0.0 0.00 0.00 0.00 25 1011.1
20260504160203 81 0.0 0.0 0.00 0.00 0.00 25 1011.2
20260504160130 81 0.0 0.0 0.00 0.00 0.00 25 1011.2
20260504151130 81 0.0 0.0 0.00 0.00 0.00 24 1011.2
20260504151058 81 0.0 0.0 0.00 0.00 0.00 24 1011.2
20260504151027 81 0.0 0.0 0.00 0.00 0.00 24 1011.2
20260504150955 81 0.0 0.0 0.00 0.00 0.00 24 1011.2
20260504150924 81 0.0 0.0 0.00 0.00 0.00 24 1011.2
20260504150852 81 0.0 0.0 0.00 0.00 0.00 24 1011.2
20260504150821 81 0.0 0.0 0.00 0.00 0.00 24 1011.2
20260504150749 81 0.0 0.0 0.00 0.00 0.00 24 1011.2
20260504150718 81 0.0 0.0 0.00 0.00 0.00 24 1011.1
20260504150646 81 0.0 0.0 0.00 0.00 0.00 24 1011.2
20260504150614 81 0.0 0.0 0.00 0.00 0.00 24 1011.2
20260504150543 81 0.0 0.0 0.00 0.00 0.00 24 1011.2
20260504150511 82 0.0 0.0 0.00 0.00 0.00 24 1011.2
20260504150440 82 0.0 0.0 0.00 0.00 0.00 24 1011.2
20260504150408 82 0.0 0.0 0.00 0.00 0.00 24 1011.2
20260504150337 82 0.0 0.0 0.00 0.00 0.00 24 1011.2
20260504150305 82 0.0 0.0 0.00 0.00 0.00 24 1011.2
20260504150233 82 0.0 0.0 0.00 0.00 0.00 24 1011.2
20260504150202 83 0.0 0.0 0.00 0.00 0.00 25 1011.3
20260504150130 83 0.0 0.0 0.00 0.00 0.00 25 1011.3